[{"header": {"dx": 0.06612293990616946, "dy": 0.0552356325346848, "nx": 98, "ny": 59, "la1": 35.046912555036876, "la2": 31.78801023549047, "lo1": -121.43107172385933, "lo2": -114.95102361305473, "refTime": "2026041117", "parameterCategory": 1, "parameterNumber": 2}, "data": [-0.0, -0.0, -0.0, -0.0, -0.0, -0.71, -0.71, -0.71, -0.57, -0.0, 1.24, 1.58, 1.4, -0.0, 1.13, 1.27, 2.23, 2.23, 3.48, 3.48, 3.48, 3.6, 2.4, 1.58, 1.79, 1.79, -2.24, -2.68, -3.13, -2.98, -2.84, -2.68, -2.0, -2.0, -1.08, -1.13, 0.0, 0.0, 1.34, 1.79, 1.79, 2.24, 3.58, 4.47, 4.66, 3.35, 3.16, 2.0, 3.16, 3.72, 3.82, 3.39, 2.8, 1.4, 1.13, 2.0, 1.7, 2.64, 3.27, 3.8, 3.2, 3.47, 3.63, 4.6, 4.15, 4.0, 2.23, -0.0, -3.35, -4.82, -4.98, -4.4, -3.58, -3.58, -3.93, -4.98, -4.98, -3.6, -4.02, -3.13, -2.68, -2.68, -1.4, -0.0, -0.0, -0.0, -0.85, -1.6, -1.68, -1.68, -1.68, -0.81, -0.0, 0.89, 1.67, 1.67, -0.0, -0.85, -0.0, -0.0, -0.0, -0.0, -0.0, -0.0, -0.0, -0.71, -0.54, -0.0, 0.53, 2.0, 1.13, -0.0, -0.0, 1.8, 2.23, 2.2, 2.2, 2.23, 3.79, 3.48, 3.6, 2.53, 1.79, 1.34, 1.34, 1.79, 1.79, -1.58, -1.4, -1.13, -1.08, -0.96, -1.08, -1.27, -1.13, -1.2, 0.0, 1.79, 2.24, 3.58, 3.58, 2.68, 3.39, 3.35, 2.48, 2.0, 2.23, 2.98, 3.58, 3.13, 2.24, 1.2, 0.99, -0.0, 0.88, 1.7, 2.35, 4.26, 4.83, 4.95, 4.74, 5.21, 4.57, 3.6, 2.21, -0.0, -3.39, -4.82, -5.29, -4.98, -4.6, -4.29, -4.54, -5.6, -5.6, -3.6, -4.02, -3.13, -2.68, -2.68, -1.4, -0.0, -0.0, -0.0, -0.85, -1.6, -1.68, -1.68, -1.68, -0.81, -0.0, 0.89, 1.67, 1.67, -0.0, -0.85, -0.0, -0.0, -0.0, -0.0, 0.54, 0.54, 0.54, -0.0, -0.0, -0.0, 0.61, 1.61, 2.23, 0.99, 1.2, 1.4, 1.98, 2.23, 2.48, 3.79, 2.23, 3.79, 3.48, 3.16, 3.6, 2.24, 0.0, 0.0, 0.0, 1.79, 1.79, 2.24, 1.9, 0.0, 0.0, 0.0, -1.08, -2.23, -1.4, 0.0, 1.79, 2.0, 2.4, 2.4, 2.8, 2.53, 2.23, 2.23, 2.53, 2.97, 3.13, 2.24, 1.79, 1.2, -0.0, -0.0, -0.0, -0.0, 2.4, 3.9, 4.83, 4.26, 4.26, 4.16, 3.22, 1.6, 1.2, -1.58, -3.58, -4.92, -5.81, -6.2, -5.6, -4.89, -4.89, -4.89, -5.94, -4.98, -3.95, -3.82, -3.35, -2.0, -0.88, -0.0, -0.0, -0.0, -0.76, -1.75, -1.68, -1.68, -0.89, -0.0, -0.0, 1.67, 2.54, 1.75, -0.0, -0.94, -0.0, -0.0, -0.0, -0.0, 0.54, 0.54, 1.2, 1.2, 0.53, -0.0, 0.53, 1.61, 2.48, 1.13, 1.13, 1.13, 1.13, 1.27, 2.0, 2.95, 3.16, 3.48, 3.48, 3.35, 3.35, 3.6, 1.79, 0.0, 0.0, 1.79, -0.0, 1.98, 3.35, 4.4, 3.58, 3.13, 3.13, -3.13, -2.24, -0.0, -0.0, 1.2, 1.9, 1.9, 1.9, 1.4, 1.4, 2.21, 2.8, 2.68, 2.12, 2.0, 2.24, 2.53, -0.0, -0.0, -0.0, -0.0, 1.66, 2.64, 3.45, 2.47, 2.47, 2.47, 1.58, -0.0, -0.0, 1.34, -2.4, -3.6, -5.81, -6.65, -6.94, -5.43, -4.84, -4.6, -4.98, -4.98, -4.8, -3.22, -1.6, -0.83, -0.84, -0.0, -0.0, -0.0, -0.85, -1.68, -1.68, -0.81, -0.0, -0.0, 0.85, 1.75, 2.54, 0.84, -0.0, -0.94, -0.0, -0.0, -0.0, -0.0, 0.65, 0.65, 1.2, 1.4, 1.16, 1.13, 1.13, 1.61, 2.23, 1.13, 1.13, 1.27, 1.13, 1.27, 0.98, 1.83, 1.84, 1.84, 1.7, 3.79, 2.84, 3.48, 2.84, 3.13, 3.13, -0.0, -0.0, 1.27, 3.16, 2.95, 3.22, 1.84, 1.84, -0.0, -0.98, -1.08, -0.0, 1.13, -0.0, -0.0, -0.0, -0.0, 1.58, 2.24, 2.68, 2.68, 2.6, 2.6, 3.58, 2.98, 0.98, -0.0, -0.0, -0.0, -0.0, 0.8, 0.82, 1.63, 1.58, 1.6, 0.8, -0.0, -0.0, -0.0, 1.79, -2.21, -4.92, -6.71, -6.51, -6.45, -5.4, -3.6, -3.93, -4.11, -3.72, -2.47, -1.55, -1.75, -0.85, -0.85, -0.81, -0.82, -0.85, -0.85, -0.85, -0.0, -0.0, -0.0, 0.85, 2.54, 1.84, -0.0, -0.85, -0.85, -0.0, -0.0, -0.0, -0.0, -0.0, 0.53, 0.61, 1.16, 1.27, 1.23, 1.76, 2.48, 3.35, 1.9, 1.2, 1.13, 1.27, 1.27, 0.98, 1.08, 0.96, 1.05, 1.52, 1.52, 1.84, 1.84, 1.7, 1.7, 1.84, 1.84, 2.23, 2.53, 3.35, 2.68, 1.99, 1.6, 2.8, 1.99, -0.0, -1.83, -0.0, 1.7, 1.27, 1.2, -0.0, -0.0, -0.0, 1.79, 2.68, 3.13, 3.6, 3.6, 4.02, 3.35, 1.27, -0.0, -0.0, -0.0, -0.0, -0.0, -0.0, 0.77, 1.55, 0.79, 0.79, -0.0, -0.0, -0.0, 1.4, -0.0, -2.8, -4.57, -5.6, -6.0, -4.98, -3.35, -2.48, -1.98, -2.54, -3.55, -2.83, -2.69, -1.67, -1.75, -2.47, -2.59, -1.76, -0.85, -0.0, -0.0, -0.0, 0.89, 1.84, 2.54, 1.65, -0.0, -0.85, -0.85, -0.71, -0.0, -0.0, -0.0, -0.0, -0.0, -0.0, 0.59, 0.57, 1.08, 1.88, 2.4, 3.16, 1.9, -0.0, 1.2, 1.13, 1.13, 1.13, 0.87, 0.98, 1.08, -0.0, -0.0, -0.0, -0.0, -0.0, 1.52, 1.52, 3.22, 3.22, 2.23, 2.23, 2.0, 0.81, 1.84, 2.8, 3.0, -0.0, -1.83, -0.0, -0.0, 1.41, 1.55, 1.55, 0.98, 1.13, 2.4, 3.13, 4.47, 4.92, 4.47, 4.0, 3.35, 2.21, 1.9, 1.58, -0.0, -0.0, -0.0, -0.0, -0.0, 0.79, 0.79, 2.49, 1.64, -0.0, -0.0, -0.0, -0.0, -2.23, -3.93, -5.2, -5.6, -4.29, -2.0, -0.96, -0.89, -1.62, -2.59, -4.34, -3.45, -2.54, -2.69, -2.69, -2.31, -1.75, -0.89, -0.0, -0.0, -0.0, 0.76, 2.54, 1.84, -0.0, -0.85, -0.85, -0.0, -0.71, -0.54, -0.0, -0.0, -0.0, -0.0, -0.0, -0.0, 0.57, 0.55, 1.07, 1.7, 1.83, 1.08, -0.0, 0.99, 1.13, 0.98, 0.98, 0.98, 1.98, 0.99, -0.0, 0.96, 0.96, -0.0, -0.0, 1.84, 3.22, 3.22, 1.7, 1.41, 1.52, 1.52, 1.7, 1.7, 2.53, 2.76, 1.52, -0.0, -0.0, -0.0, 1.41, 1.84, 1.84, 2.8, 2.95, 3.16, 3.35, 5.09, 4.57, 4.6, 3.79, 3.16, 2.21, 2.4, 2.8, 0.96, -0.0, -0.0, -0.0, -0.0, -0.0, 1.62, 3.17, 3.32, 0.89, -1.13, -1.6, -2.53, -3.72, -4.98, -5.51, -4.98, -3.93, -1.6, -0.89, -1.63, -1.64, -0.82, -1.44, -3.79, -3.9, -3.64, -3.11, -3.11, -2.47, -1.84, -0.89, -0.0, -0.0, 0.79, 1.65, 0.89, -0.0, -0.85, -0.89, -0.0, -1.24, -0.65, -0.65, -0.65, -0.61, -0.0, -0.0, -0.0, -0.0, -0.0, 0.55, 0.54, -0.0, 0.96, 1.05, -0.0, -0.0, -0.0, 0.96, 0.96, 1.7, -0.0, -0.0, -0.0, 0.96, -0.0, -0.0, 1.7, 3.22, 1.55, -0.0, -0.0, -0.0, 1.63, 2.99, 2.95, 1.7, 1.52, 1.63, -0.0, -0.0, -0.0, 1.7, 1.7, 1.84, 1.83, 3.22, 4.43, 4.43, 4.89, 5.72, 4.11, 2.99, 1.83, 2.23, 3.39, 3.9, 1.99, -0.0, -0.0, -0.0, -0.0, -0.0, 0.78, 4.1, 4.93, 2.51, -1.2, -2.4, -3.39, -4.82, -4.92, -5.36, -4.47, -3.58, -3.6, -3.29, -2.45, -1.71, -0.0, -0.0, -3.33, -3.79, -3.84, -3.84, -3.84, -3.35, -2.99, -1.7, -0.82, -0.0, -0.0, -0.0, -0.0, -0.81, -0.89, -0.0, -0.0, -1.61, -1.2, -1.2, -0.65, -0.61, -0.61, -0.61, -0.0, -0.0, -0.0, -0.0, 0.55, 0.55, 1.19, 0.96, -0.0, -0.0, -0.0, -0.0, 1.52, 1.52, -0.0, -0.0, -0.0, -0.0, -0.0, -0.0, -0.0, 1.84, 1.55, -0.0, -0.0, -0.0, 1.52, 3.72, 4.43, 3.22, 0.96, 1.63, 3.0, 1.84, 1.99, 2.0, 0.98, 2.23, 2.0, 2.95, 4.54, 5.49, 5.37, 4.95, 4.42, 2.51, 1.84, 1.84, 2.95, 3.79, 2.6, -0.0, -0.0, 0.79, -0.0, -0.0, 0.83, 3.19, 4.75, 2.67, -1.34, -2.68, -3.58, -4.92, -4.85, -4.15, -3.6, -4.15, -5.13, -4.93, -3.32, -1.45, -0.0, 0.74, 0.73, -1.7, -3.58, -3.74, -4.38, -4.15, -3.58, -2.68, -1.7, -1.52, -0.79, -0.85, -0.89, -0.81, -0.89, -0.0, -0.0, -1.88, -1.61, -1.2, -1.4, -1.4, -1.16, -0.61, -0.61, -0.0, -0.0, -0.0, 0.57, 0.57, 0.57, 0.96, 0.96, 0.96, 0.57, 1.13, 1.84, 1.83, 1.99, 1.99, 1.99, 1.41, -0.0, -0.0, -0.0, 1.84, 1.7, 1.55, -0.0, 1.08, 2.2, 2.95, 4.43, 3.0, 3.2, 2.6, 3.47, 3.91, 3.35, 2.68, 2.0, 2.0, 1.8, 2.95, 4.54, 4.74, 4.16, 3.49, 3.25, 3.39, 2.49, 1.68, 2.57, 2.54, 1.72, -0.0, -0.0, -0.0, 0.81, 0.83, 0.85, 1.62, 3.29, 2.4, 1.34, -2.98, -3.9, -4.34, -3.22, -1.8, -1.6, -3.6, -4.6, -4.39, -3.29, -1.76, -0.0, 0.77, 1.58, 0.76, -0.81, -2.6, -3.58, -4.02, -3.6, -2.41, -2.76, -2.47, -1.84, -1.75, -0.85, -0.85, -0.0, -0.0, -0.0, -1.88, -1.88, -1.88, -1.61, -1.61, -1.61, -1.16, -1.16, -0.61, -0.0, -0.0, 0.59, 0.59, 0.57, 0.57, 1.11, 1.76, 1.76, 1.8, 1.84, 2.23, 2.51, 2.84, 4.43, 2.6, 1.41, 1.3, 1.33, 2.2, 2.98, 2.98, 2.2, 2.0, 2.23, 3.16, 3.79, 3.22, 3.47, 2.99, 3.63, 4.54, 4.29, 4.0, 3.6, 1.8, 0.98, 1.41, 3.2, 2.82, 1.4, 0.89, 1.63, 1.64, 1.55, 2.37, 2.37, 3.42, 1.65, -0.8, -0.83, -0.0, 0.8, 1.7, 0.85, -0.0, -0.0, -0.0, -0.0, -3.16, -3.93, -3.2, -0.99, 0.0, 0.96, -1.4, -2.44, -2.39, -1.63, -1.58, -0.0, 0.84, 1.67, 0.85, -0.0, -0.0, -2.21, -3.39, -2.84, -2.53, -2.4, -2.88, -2.35, -1.55, -1.75, -0.89, -0.0, -0.0, 0.85, -1.88, -1.88, -1.61, -1.84, -1.84, -1.84, -1.61, -1.88, -1.2, -0.0, -0.0, 0.59, 0.59, 0.59, 0.59, 1.27, 1.58, 1.76, 2.48, 2.23, 2.23, 2.23, 2.84, 2.84, 2.84, 2.84, 2.84, 2.84, 2.53, 2.53, 3.93, 2.95, 3.16, 2.23, 2.0, 2.95, 3.07, 3.79, 3.79, 3.93, 4.6, 4.22, 4.0, 2.21, -0.0, -0.0, -0.0, -0.0, -0.0, -0.0, -0.0, 0.71, -0.0, -0.0, 1.11, 2.28, 4.48, 3.45, -0.0, -0.79, -0.0, 0.82, 1.69, 0.8, -0.0, -0.79, -0.76, -0.0, -1.4, -3.35, -2.76, -0.96, 0.88, 1.84, -0.0, -0.81, -0.0, -0.0, -0.0, -0.0, 0.78, 0.89, -0.0, -0.0, -0.0, -0.0, -0.96, -1.83, -1.7, -1.47, -2.4, -2.47, -1.63, -0.89, -0.0, -0.0, 0.89, 0.89, -1.24, -1.88, -1.88, -1.84, -1.84, -1.84, -1.84, -1.61, -1.88, -0.65, -0.0, -0.0, 0.59, 1.13, 1.13, 1.13, 1.27, 1.76, 2.22, 2.48, 2.23, 2.51, 2.51, 2.84, 2.84, 2.79, 2.79, 2.79, 2.53, 2.53, 2.79, 3.93, 3.79, 2.84, 2.84, 3.16, 3.16, 3.16, 4.0, 4.0, 4.0, 4.34, 4.66, 2.84, -0.0, -0.0, -0.0, -0.0, -0.0, -0.0, -0.0, -0.0, -0.0, -0.0, 1.18, 2.18, 3.7, 4.32, 1.11, -0.0, -0.0, -0.0, 1.11, 1.14, -0.0, -0.0, -0.78, -1.48, -0.0, 0.88, 1.79, -1.08, 0.0, 3.2, 2.59, 1.57, 1.6, 1.68, 0.84, 0.83, 0.89, -0.0, -0.0, -0.74, -0.0, 0.89, -0.0, -0.0, -0.0, -0.0, -0.76, -1.6, -0.82, -0.89, -0.0, -0.0, 0.85, 1.75, -0.8, -1.24, -1.88, -1.61, -1.84, -1.6, -1.6, -1.84, -1.61, -1.4, -0.65, -0.0, -0.0, 0.61, 1.13, 1.13, 1.13, 1.11, 1.76, 2.48, 2.23, 2.23, 2.23, 2.84, 2.79, 3.07, 2.5, 2.15, 2.5, 2.5, 2.5, 2.79, 4.46, 3.79, 3.48, 2.98, 3.79, 4.0, 4.66, 3.9, 4.02, 4.92, 4.47, 2.84, -0.0, -0.0, -0.0, -0.0, -1.3, -0.0, -0.0, -0.0, -0.0, -0.0, -0.0, 1.23, 2.4, 2.89, 2.95, 1.16, -0.0, -0.0, -0.0, -0.0, 2.33, 1.14, -1.16, -1.13, 1.21, 2.45, 3.95, 5.1, 5.06, 5.29, 5.02, 4.87, 3.29, 2.44, 1.73, 1.73, 0.94, -0.0, -0.0, -0.82, -0.78, 0.8, 1.67, 1.75, 0.74, 0.83, -0.0, -0.0, -0.0, -0.0, 0.89, 1.67, 1.75, 1.75, -0.0, -0.0, -0.71, -1.2, -1.61, -1.13, -1.13, -1.6, -1.84, -1.61, -1.2, -0.65, -0.0, 0.61, 0.61, 0.59, 0.59, 1.27, 1.8, 2.23, 2.23, 1.6, 2.23, 2.84, 3.07, 2.91, 2.17, 1.7, 1.26, 1.58, 1.9, 2.5, 3.07, 4.46, 3.79, 2.68, 3.93, 4.0, 4.92, 4.47, 3.58, 3.39, 3.6, 3.6, 2.53, -0.0, -0.0, -0.0, -0.0, -1.55, -0.0, -0.0, -0.0, -0.0, -0.0, -0.0, -0.0, 1.18, 2.33, 3.17, 2.51, -0.0, -0.0, -0.0, 2.21, 3.35, -0.77, -2.32, -0.0, 1.19, 4.04, 7.6, 9.92, 8.99, 8.25, 7.32, 4.87, 2.54, 1.84, 1.84, 1.73, 0.89, -0.0, -0.0, -0.0, 0.95, 1.67, 3.49, 3.49, 2.57, 2.69, 1.52, 1.55, 1.58, 1.44, 2.23, 2.35, 2.35, 1.2, 0.6, -0.0, -0.0, -0.65, -1.16, -1.13, -1.13, -1.13, -1.33, -1.16, -1.2, -0.53, -0.0, 0.61, 0.61, 0.59, 1.27, 1.8, 2.23, 1.88, 1.13, 2.22, 3.16, 2.91, 2.24, 1.34, 0.89, 0.63, 1.26, 1.58, 2.23, 2.5, 4.46, 2.68, 3.48, 3.93, 4.84, 4.66, 4.0, 3.6, 2.53, 3.16, 2.53, 2.0, 1.55, -0.0, -0.0, -0.0, -0.0, -0.0, -0.0, -0.0, 1.55, 1.3, 1.3, -0.0, 1.41, 2.73, 4.74, 4.47, 2.49, -0.0, -0.0, 2.16, 2.35, -0.0, -3.6, -1.17, -0.0, 4.74, 8.94, 11.29, 10.71, 10.59, 8.74, 6.65, 4.25, 2.44, 1.67, 1.75, 0.89, -0.0, -0.0, 0.89, 1.65, 1.75, 4.25, 3.95, 4.13, 3.7, 2.99, 2.23, 2.97, 3.36, 3.06, 3.06, 3.06, 1.6, 1.6, 1.26, 0.57, -0.0, -0.0, -0.61, -0.59, -0.59, -0.59, -1.33, -1.16, -0.61, -0.0, -0.0, -0.0, 0.59, 1.27, 2.51, 2.21, 1.2, 0.59, 1.73, 2.86, 2.5, 1.34, 0.63, 0.95, 0.8, 1.24, 1.9, 2.23, 2.4, 2.8, 3.07, 3.58, 3.58, 4.84, 4.84, 3.79, 2.98, 2.98, 2.98, 3.79, 3.22, 2.6, 3.22, 2.98, 1.55, 1.55, 2.0, 2.0, 1.41, 1.55, 1.3, 2.98, 2.98, 2.48, 3.48, 4.11, 4.74, 3.91, 2.66, 1.1, 2.32, 2.47, -0.0, -3.34, -1.09, -0.0, 5.1, 10.58, 12.87, 12.16, 10.01, 7.25, 5.55, 5.02, 4.1, 2.51, 1.76, 0.89, 0.85, 2.28, 2.59, 2.49, 3.29, 3.39, 4.17, 5.06, 4.87, 4.25, 2.97, 3.02, 3.95, 4.07, 3.7, 3.7, 1.7, 2.12, 1.86, 1.86, 1.24, 0.65, -0.0, -0.0, -0.61, -0.51, -0.51, -0.61, -0.61, -0.61, -0.0, -0.0, -0.0, 0.66, 1.6, 1.88, 0.65, 0.57, 1.19, 1.84, 2.2, 2.2, 1.0, 2.2, 2.95, 2.23, 2.84, 3.14, 3.07, 2.91, 2.91, 2.91, 3.32, 3.6, 4.6, 5.36, 4.43, 4.74, 6.08, 5.06, 5.37, 5.06, 5.36, 4.43, 4.11, 2.98, 2.98, 2.98, 1.55, 1.7, 2.8, 4.02, 3.76, 3.76, 4.02, 4.02, 5.06, 4.75, 3.6, 1.65, 2.35, 2.35, -0.0, -1.63, -0.8, -0.0, 5.31, 11.26, 14.39, 12.86, 8.02, 2.57, 1.7, 3.25, 4.04, 3.34, 1.76, 1.68, 2.59, 2.89, 3.39, 3.29, 3.29, 4.4, 5.06, 5.1, 5.6, 5.06, 4.3, 3.69, 5.0, 4.92, 4.56, 4.56, 2.12, 2.0, 2.4, 2.4, 2.15, 1.9, 1.2, 0.65, -0.0, -0.0, -0.0, -0.0, -0.61, -0.61, -0.61, -0.53, -0.0, -0.0, 0.96, 1.83, 0.88, 0.57, 1.23, 1.99, 1.99, 2.76, 2.99, 3.12, 3.78, 4.11, 4.11, 4.07, 4.27, 4.11, 3.39, 3.39, 3.39, 3.82, 4.11, 4.8, 5.08, 5.37, 5.75, 5.86, 5.86, 6.28, 5.72, 5.36, 5.01, 4.84, 2.98, 2.98, 2.6, 2.6, 2.99, 3.72, 5.03, 3.9, 4.29, 5.06, 4.75, 3.6, 2.33, 1.16, 2.4, 2.31, 0.79, -0.0, 0.77, 2.64, 6.82, 11.61, 13.49, 9.97, 2.95, -0.95, -0.85, 0.85, 3.19, 3.19, 3.16, 3.25, 3.51, 3.25, 3.25, 3.69, 4.31, 5.09, 5.3, 5.09, 4.87, 5.72, 4.87, 4.13, 5.18, 5.9, 5.21, 5.21, 2.6, 2.4, 2.4, 2.8, 2.5, 2.5, 2.5, 1.9, 1.2, -0.0, -0.0, -0.0, -0.0, -0.0, -0.53, -0.61, -0.61, -0.61, -0.0, 0.88, 0.96, 1.27, 1.27, 1.8, 2.23, 2.86, 3.48, 3.49, 4.11, 4.11, 4.37, 4.65, 4.84, 4.93, 4.4, 4.11, 3.6, 3.87, 4.3, 4.6, 4.9, 5.08, 5.37, 5.75, 5.29, 6.28, 6.13, 6.13, 6.0, 4.84, 2.98, 2.98, 2.6, 2.8, 3.0, 3.72, 4.83, 5.21, 5.03, 3.91, 3.8, 3.7, 1.22, 1.16, 2.44, 2.49, 0.8, 0.83, 2.31, 4.0, 6.64, 9.9, 8.0, 1.9, -3.9, -3.0, -0.78, -0.0, 0.89, 1.7, 3.32, 4.21, 4.06, 3.76, 4.3, 4.13, 4.8, 5.09, 5.09, 4.6, 4.13, 5.0, 5.63, 5.28, 5.38, 5.13, 4.71, 4.71, 2.6, 2.91, 2.68, 2.68, 2.68, 2.68, 3.32, 3.32, 2.5, 1.9, 0.54, -0.0, -0.0, -0.0, -0.0, -0.61, -1.16, -0.61, -0.53, -0.0, 0.61, 1.33, 1.13, 1.6, 2.23, 2.48, 2.86, 3.15, 3.49, 3.49, 4.11, 4.65, 5.21, 5.21, 4.65, 4.55, 4.27, 4.27, 4.27, 4.27, 4.4, 4.55, 4.93, 4.84, 4.94, 5.01, 6.52, 6.23, 5.6, 4.84, 3.22, 2.8, 2.8, 2.8, 2.8, 3.68, 4.5, 6.04, 4.96, 3.8, 3.32, 2.49, 0.82, 0.81, 1.6, 1.6, 0.78, 0.83, 1.64, 2.45, 4.98, 6.0, 2.82, -2.8, -1.84, -0.83, -1.7, -1.7, -1.45, -0.0, 1.65, 3.78, 4.13, 4.87, 4.98, 4.81, 4.93, 4.93, 5.0, 4.6, 4.4, 4.4, 5.28, 5.38, 4.71, 4.46, 3.45, 3.45, 2.63, 2.63, 2.91, 3.2, 3.2, 3.2, 3.39, 3.39, 3.39, 3.32, 2.15, 0.54, -0.0, -0.0, -0.0, -0.65, -0.53, -0.53, -0.65, -0.0, -0.0, 0.61, 1.16, 1.33, 1.84, 2.23, 2.48, 2.86, 3.15, 3.48, 4.07, 4.65, 4.65, 5.21, 5.21, 4.65, 4.93, 4.55, 4.55, 4.37, 4.37, 4.55, 4.55, 4.65, 4.65, 4.65, 6.64, 6.0, 4.84, 4.11, 3.76, 4.02, 4.02, 4.02, 2.8, 3.0, 3.4, 4.96, 5.46, 3.27, 2.7, 2.49, 1.62, 0.8, 0.77, 0.77, 0.81, 0.8, 0.8, 0.8, 2.24, 4.58, 8.43, 5.36, 1.32, -0.0, -0.87, -2.41, -2.4, -1.52, -0.0, 1.61, 3.17, 4.04, 5.45, 5.73, 5.67, 5.8, 5.72, 5.76, 3.88, 4.6, 5.13, 4.71, 3.91, 3.91, 2.99, 2.99, 3.07, 3.07, 2.91, 3.39, 3.6, 3.82, 3.82, 3.87, 3.87, 3.98, 3.82, 2.5, 1.24, 0.71, -0.0, -0.0, -0.65, -0.65, -0.65, -0.0, -0.0, -0.0, 0.61, 1.16, 1.84, 1.84, 2.23, 2.23, 2.86, 3.48, 3.48, 4.07, 4.65, 4.65, 4.65, 4.65, 4.65, 4.65, 4.65, 4.55, 4.37, 4.37, 4.0, 4.0, 4.4, 4.27, 6.23, 6.0, 5.01, 4.74, 4.29, 5.06, 4.02, 4.02, 3.76, 2.49, 2.47, 3.4, 3.6, 3.8, 1.84, 1.75, 2.44, 1.63, 0.79, -0.0, 0.78, 1.17, 0.82, -0.0, 0.81, 10.12, 13.88, 10.63, 6.01, 1.52, -2.53, -2.84, -1.7, -1.65, -1.45, -0.0, 1.44, 3.6, 4.93, 5.6, 5.93, 6.08, 6.45, 6.57, 5.21, 4.46, 4.56, 4.03, 3.09, 2.99, 3.8, 3.8, 3.07, 3.07, 3.39, 3.39, 3.82, 3.87, 4.3, 3.87, 4.43, 4.44, 4.44, 3.87, 2.68, 1.58, 0.71, -0.0, -0.0, -0.54, -0.54, -0.54, -0.0, -0.0, 0.65, 0.53, 1.16, 1.61, 1.84, 2.51, 2.84, 3.16, 3.78, 3.73, 4.07, 4.65, 4.65, 4.65, 4.65, 4.65, 4.65, 4.65, 4.55, 4.0, 4.27, 4.52, 4.52, 4.77, 4.77, 5.24, 5.09, 4.8, 4.55, 6.13, 5.36, 4.74, 4.02, 4.02, 2.49, 2.8, 3.68, 2.4, 2.54, 2.51, 2.51, 2.47, 0.79, -0.0, 0.78, 1.65, 1.58, -0.0, 1.73, 6.53, 13.84, 12.87, 7.51, 0.96, -2.0, -2.4, -2.0, -1.65, -1.5, -0.0, 0.75, 2.89, 4.13, 5.14, 5.14, 5.29, 6.15, 6.71, 7.64, 4.71, 4.03, 3.4, 3.09, 3.6, 4.37, 4.37, 3.53, 3.53, 3.53, 3.82, 3.87, 4.3, 4.3, 4.34, 4.44, 4.44, 4.44, 4.88, 4.3, 2.91, 1.58, 0.57, -0.0, -0.0, -0.71, -0.71, -0.71, -0.0, -0.0, -0.0, 0.61, 1.16, 1.84, 1.84, 2.51, 3.16, 3.16, 3.78, 4.0, 4.37, 4.65, 4.65, 4.65, 4.65, 4.65, 4.65, 4.55, 4.55, 4.4, 4.11, 4.3, 4.34, 4.88, 5.24, 5.24, 5.09, 5.09, 4.8, 6.13, 4.74, 4.29, 4.56, 4.02, 2.8, 2.49, 2.4, 3.4, 3.91, 2.29, 1.63, 0.79, -0.0, -0.0, 1.55, 0.82, -0.0, 0.84, 3.87, 9.11, 13.61, 11.91, 5.06, -1.58, -2.21, -0.0, -0.0, -0.82, -0.72, -0.0, 1.47, 2.97, 4.25, 4.92, 5.06, 5.9, 5.95, 7.12, 6.05, 5.21, 3.69, 3.91, 4.96, 5.21, 5.21, 4.02, 4.02, 3.98, 3.87, 4.3, 4.34, 4.34, 4.77, 4.44, 4.44, 4.44, 4.89, 4.89, 4.44, 3.32, 1.9, 0.71, -0.0, -0.0, -0.0, -0.0, -0.0, -0.0, -0.0, 0.61, 0.61, 1.16, 1.84, 2.51, 2.51, 2.86, 2.86, 3.43, 3.78, 4.0, 4.37, 4.37, 4.55, 4.55, 4.65, 4.65, 4.93, 5.08, 4.6, 4.34, 4.34, 4.77, 4.8, 5.24, 5.24, 5.09, 5.02, 4.8, 4.07, 5.15, 4.74, 5.06, 2.8, 1.72, 2.35, 4.71, 4.56, 2.4, 1.65, 1.14, -0.0, -0.0, 1.56, 0.85, 0.81, 0.89, 2.54, 5.86, 10.43, 12.85, 11.37, 6.32, 2.4, 0.96, 0.85, -0.0, -1.68, -0.8, -0.0, 1.49, 3.06, 4.92, 5.76, 5.76, 6.0, 6.62, 8.01, 7.36, 6.04, 5.49, 5.49, 5.94, 5.94, 4.47, 4.47, 4.44, 4.34, 4.34, 4.77, 4.77, 4.77, 4.88, 4.88, 4.92, 4.92, 5.36, 5.33, 4.44, 3.07, 1.61, 0.61, -0.0, -0.0, -0.0, -0.0, -0.0, -0.0, -0.0, 0.51, 0.61, 1.13, 1.84, 1.84, 2.51, 2.84, 3.16, 3.43, 3.78, 4.0, 4.0, 4.37, 4.37, 4.55, 4.93, 4.65, 4.65, 4.65, 4.55, 4.8, 5.24, 4.89, 4.89, 4.8, 4.6, 4.27, 4.07, 4.11, 4.37, 5.15, 5.06, 4.02, 2.64, 3.2, 4.95, 4.83, 3.15, 2.44, 1.55, -0.0, 0.8, 1.68, 0.8, 0.8, 1.75, 2.4, 4.34, 6.98, 10.43, 13.74, 14.2, 10.01, 5.36, 1.75, -0.0, -1.25, -1.23, -0.0, -0.0, 1.63, 3.8, 5.76, 6.45, 6.45, 7.24, 8.85, 8.76, 7.52, 6.58, 6.64, 6.68, 6.68, 4.92, 4.92, 4.88, 4.88, 4.89, 4.8, 4.89, 4.89, 4.89, 4.89, 4.92, 4.92, 5.36, 5.36, 5.33, 4.3, 2.53, 1.13, 0.57, -0.0, 0.63, 0.63, 0.57, 0.57, 0.59, 1.27, 1.13, 1.13, 1.33, 1.84, 1.84, 2.51, 2.84, 3.16, 3.43, 3.78, 4.0, 4.0, 4.37, 4.37, 4.55, 4.29, 4.41, 5.15, 5.15, 4.65, 5.09, 4.3, 3.6, 4.3, 3.88, 4.07, 4.11, 4.71, 4.71, 4.65, 5.37, 3.68, 3.55, 3.4, 4.03, 4.26, 2.44, 3.32, 2.4, -1.62, -0.0, 1.68, -0.0, -0.0, 1.55, 3.45, 5.21, 7.06, 9.03, 11.75, 13.26, 12.5, 8.95, 4.4, -0.0, -1.2, -1.16, -0.0, -0.0, 1.6, 3.2, 5.06, 6.57, 7.36, 8.53, 8.93, 9.57, 8.9, 7.94, 7.31, 7.02, 7.02, 5.36, 5.36, 5.33, 5.33, 5.33, 5.33, 5.33, 5.33, 5.33, 5.33, 5.36, 4.92, 5.36, 5.36, 5.81, 5.33, 3.6, 1.33, 0.57, 0.63, 0.55, 1.08, 1.23, 1.23, 1.76, 1.58, 1.8, 1.8, 1.84, 1.61, 1.84, 1.84, 2.51, 2.84, 3.16, 3.43, 3.78, 4.0, 4.0, 4.0, 4.37, 4.37, 4.07, 4.07, 3.79, 5.49, 5.58, 4.0, 3.79, 4.11, 4.71, 5.01, 4.37, 4.71, 5.21, 5.21, 5.01, 4.12, 3.77, 3.2, 4.03, 4.12, 3.15, 4.0, -0.0, -1.54, -0.0, 2.37, 0.84, -0.88, -0.0, 2.44, 6.57, 9.34, 9.36, 9.49, 9.81, 9.89, 9.89, 7.38, 1.67, -0.59, -0.0, 0.63, 1.73, 3.33, 3.79, 5.3, 6.64, 7.96, 8.58, 9.67, 9.52, 10.01, 8.94, 7.96, 7.33, 7.33, 5.36, 5.36, 5.36, 5.34, 5.34, 5.33, 5.33, 5.33, 5.33, 5.33, 5.33, 5.36, 5.36, 5.36, 5.81, 5.81, 4.77, 2.53, 0.59, 0.57, 0.57, 1.23, 1.76, 1.76, 1.76, 1.76, 1.76, 2.23, 1.84, 1.16, 1.16, 1.84, 2.23, 2.51, 2.84, 3.43, 3.43, 3.88, 4.27, 4.27, 4.0, 4.0, 4.0, 3.78, 3.78, 4.84, 6.21, 5.01, 4.71, 4.94, 5.21, 5.21, 4.93, 4.65, 5.21, 5.21, 4.71, 4.12, 3.47, 3.4, 4.03, 4.12, 4.0, 3.27, 0.79, -1.58, -1.62, 1.09, 2.33, -0.0, -1.7, 0.83, 5.06, 9.7, 11.28, 9.03, 6.73, 6.83, 8.42, 9.36, 4.5, 0.82, 0.63, 2.4, 3.47, 4.75, 5.37, 6.7, 7.28, 8.24, 8.24, 8.8, 9.34, 9.2, 8.93, 7.95, 7.69, 7.69, 5.81, 5.81, 5.81, 5.78, 5.78, 5.78, 5.34, 5.34, 5.34, 5.34, 5.34, 5.36, 5.36, 5.81, 5.81, 6.26, 5.81, 4.34, 1.88, 1.84, 1.11, 1.23, 1.76, 1.76, 1.76, 2.22, 2.22, 2.48, 2.76, 1.84, 1.13, 1.84, 2.23, 2.23, 2.84, 3.09, 3.72, 3.88, 4.27, 4.27, 4.27, 4.0, 4.27, 4.27, 3.88, 4.6, 4.9, 5.47, 5.21, 5.21, 5.47, 5.08, 5.08, 4.55, 4.8, 4.65, 4.71, 4.42, 3.72, 3.45, 4.26, 4.12, 4.12, 3.69, 1.63, -0.79, -2.54, -0.0, 2.26, -0.0, -0.81, -0.0, 2.26, 8.54, 12.78, 12.26, 7.97, 6.95, 8.38, 7.94, 5.21, 2.29, 2.47, 4.12, 5.38, 6.32, 6.62, 6.79, 7.81, 7.6, 7.6, 7.89, 7.89, 7.6, 7.92, 7.67, 7.07, 7.07, 6.26, 6.26, 5.81, 5.81, 5.78, 5.78, 5.78, 5.78, 5.78, 5.78, 5.78, 5.81, 5.36, 5.36, 5.81, 6.26, 6.71, 6.71, 5.78, 3.35, 1.8, 1.23, 1.76, 1.76, 2.22, 2.44, 2.22, 2.86, 2.48, 2.76, 1.8, 1.8, 1.84, 2.23, 2.79, 3.14, 3.72, 3.72, 3.88, 4.27, 4.27, 4.27, 4.27, 4.11, 4.11, 4.6, 4.6, 4.9, 5.31, 5.31, 5.31, 5.31, 4.8, 4.9, 4.9, 4.8, 4.55, 4.12, 4.12, 3.85, 4.1, 3.91, 3.52, 3.09, 2.51, -0.0, -0.84, -0.76, -0.0, 1.14, -0.0, -0.0, 0.88, 5.89, 12.5, 14.42, 10.86, 8.38, 8.3, 6.7, 4.36, 3.0, 4.46, 6.14, 6.65, 6.95, 7.25, 6.87, 7.81, 7.2, 6.8, 5.43, 5.75, 5.43, 5.82, 6.82, 6.07, 6.07, 6.26, 6.26, 6.26, 6.26, 5.78, 5.78, 5.78, 5.78, 5.78, 5.78, 5.78, 5.78, 5.81, 5.81, 5.81, 6.26, 6.26, 6.71, 6.68, 5.09, 3.16, 1.76, 1.76, 1.76, 2.22, 2.44, 2.86, 2.86, 2.86, 2.48, 2.23, 2.23, 2.07, 2.23, 2.53, 3.14, 3.35, 3.72, 3.88, 4.27, 4.27, 4.27, 4.52, 4.11, 4.11, 4.52, 4.6, 4.4, 4.8, 4.8, 4.8, 4.8, 4.8, 5.31, 5.31, 5.08, 4.55, 4.29, 4.12, 4.12, 4.66, 3.52, 3.35, 3.35, 2.4, 0.79, -0.0, -0.0, -0.0, -0.0, 0.78, 1.23, 1.41, 4.42, 9.96, 13.8, 13.12, 10.24, 7.33, 5.09, 3.64, 3.8, 5.52, 6.71, 7.22, 6.65, 6.32, 5.98, 6.44, 5.82, 4.89, 3.48, 2.84, 3.22, 4.22, 5.82, 5.46, 5.46, 6.26, 6.26, 6.26, 6.26, 6.26, 5.78, 5.78, 5.78, 5.78, 5.78, 5.78, 5.79, 5.79, 5.81, 6.23, 6.26, 6.26, 6.71, 6.71, 6.23, 4.27, 2.22, 2.44, 2.44, 2.22, 2.44, 2.86, 3.15, 2.86, 2.48, 2.23, 2.23, 2.23, 1.84, 2.53, 2.79, 3.14, 3.72, 3.88, 4.27, 4.4, 4.6, 4.6, 4.11, 4.11, 4.11, 4.11, 4.11, 4.52, 4.52, 4.6, 4.4, 4.8, 5.31, 5.47, 5.47, 5.47, 4.65, 4.37, 4.1, 3.83, 4.4, 3.52, 3.52, 3.35, 2.4, 0.89, 0.76, -0.0, 0.79, 0.71, 2.21, 3.91, 5.06, 7.68, 10.43, 12.96, 11.92, 9.17, 5.36, 3.91, 4.5, 5.95, 6.71, 6.51, 5.38, 4.47, 4.65, 4.43, 3.63, 1.83, 1.08, -0.0, -0.0, 1.74, 2.84, 4.46, 4.46, 6.71, 6.71, 6.26, 6.26, 6.26, 6.23, 5.79, 5.78, 5.78, 6.23, 6.23, 6.23, 6.23, 6.23, 6.23, 6.23, 6.23, 6.68, 7.15, 6.68, 5.02, 3.15, 2.44, 2.44, 2.44, 2.22, 3.15, 3.48, 2.86, 2.86, 2.23, 2.23, 2.23, 2.23, 2.53, 2.53, 2.79, 3.6, 3.72, 3.88, 4.6, 4.6, 4.6, 4.11, 4.11, 3.6, 3.6, 3.7, 4.11, 4.11, 4.11, 4.4, 4.8, 5.08, 5.47, 5.75, 5.75, 5.29, 4.94, 4.1, 4.05, 3.56, 3.52, 3.27, 3.45, 3.6, 2.47, 1.55, 0.82, 0.84, 1.2, 2.31, 5.03, 5.15, 5.1, 6.7, 9.66, 12.02, 12.23, 8.66, 5.86, 5.41, 5.95, 6.05, 4.6, 3.09, 2.47, 2.99, 1.83, 0.96, -0.0, -0.0, -0.96, -0.98, -0.0, 0.85, 3.16, 3.16, 6.71, 6.71, 6.71, 6.26, 6.26, 6.23, 6.23, 6.23, 6.23, 6.23, 6.23, 6.23, 6.23, 6.23, 6.23, 6.68, 6.68, 6.68, 7.15, 6.71, 5.7, 4.0, 2.86, 2.86, 2.44, 2.48, 2.86, 3.48, 3.48, 2.86, 2.58, 2.23, 2.23, 2.23, 2.53, 2.21, 2.68, 3.07, 3.6, 4.11, 4.52, 4.6, 4.27, 4.8, 4.0, 3.6, 3.82, 3.39, 3.6, 3.6, 4.27, 4.55, 5.08, 5.21, 5.75, 5.75, 5.86, 5.59, 4.75, 4.1, 4.05, 3.56, 3.52, 3.27, 4.12, 3.8, 2.64, 2.6, 0.78, -0.0, 0.85, 3.27, 5.44, 5.03, 3.6, 4.34, 6.84, 10.34, 12.64, 11.24, 7.85, 6.53, 5.62, 3.7, 2.26, 1.6, 0.81, 0.88, -0.0, -0.0, -0.88, -1.84, -1.84, -1.83, -1.27, -0.99, -0.0, 1.98, 6.71, 6.71, 6.71, 6.71, 6.26, 6.26, 6.23, 6.23, 6.23, 6.23, 6.23, 6.23, 6.23, 6.23, 6.23, 6.68, 6.68, 6.68, 7.15, 7.15, 6.16, 4.8, 3.2, 3.12, 2.86, 2.86, 2.86, 3.16, 3.43, 3.16, 3.16, 2.84, 2.51, 2.51, 2.23, 2.21, 2.5, 2.91, 3.39, 3.82, 4.11, 4.11, 3.88, 4.8, 4.27, 4.11, 3.39, 3.32, 3.6, 3.88, 4.37, 4.93, 5.21, 5.58, 5.75, 5.86, 5.59, 5.93, 5.37, 4.75, 4.05, 4.03, 3.3, 3.4, 3.27, 3.35, 3.17, 2.35, 1.55, 0.77, 0.77, 2.33, 4.71, 5.49, 4.96, 4.42, 5.24, 8.31, 10.48, 11.01, 8.85, 7.44, 5.09, 1.49, -0.0, -0.0, -0.0, -0.0, -0.96, -1.7, -1.84, -2.8, -3.47, -2.76, -2.68, -1.98, -0.99, -0.0, 6.68, 6.68, 6.71, 6.71, 6.71, 6.71, 6.23, 6.23, 6.23, 6.23, 6.23, 6.23, 6.23, 6.23, 6.23, 6.68, 6.68, 6.68, 7.13, 7.15, 6.68, 4.9, 3.48, 3.49, 3.2, 3.15, 2.86, 3.43, 3.43, 3.43, 3.16, 3.16, 2.84, 2.84, 2.84, 2.53, 2.86, 2.68, 3.32, 3.39, 3.6, 4.11, 3.6, 4.11, 5.2, 3.88, 3.6, 3.6, 3.72, 4.0, 4.93, 4.84, 5.21, 5.58, 5.49, 5.86, 5.93, 5.98, 5.08, 4.47, 4.05, 4.03, 3.09, 3.35, 3.35, 3.7, 2.4, 2.51, 1.58, 1.6, 1.67, 2.4, 3.6, 4.88, 5.69, 5.76, 5.1, 6.04, 8.3, 9.37, 8.58, 7.67, 4.4, -0.0, -0.88, -0.0, -0.0, -0.96, -1.99, -1.84, -2.6, -3.47, -3.91, -3.79, -2.95, -3.16, -2.84, -0.99, 7.13, 7.13, 6.71, 6.71, 6.71, 6.71, 6.71, 6.68, 6.23, 6.68, 6.68, 6.23, 6.23, 6.23, 6.23, 6.23, 6.68, 6.68, 7.15, 7.6, 7.15, 5.57, 4.0, 3.48, 3.48, 3.48, 3.48, 3.43, 3.43, 3.43, 3.43, 3.43, 3.16, 3.16, 2.84, 2.84, 2.79, 3.07, 3.07, 3.2, 3.82, 3.82, 3.82, 3.82, 3.87, 5.2, 3.88, 4.27, 4.37, 4.55, 4.93, 4.84, 5.21, 5.21, 5.29, 5.59, 5.93, 5.69, 5.38, 5.1, 4.46, 3.56, 3.25, 2.17, 3.14, 3.3, 2.4, 2.4, 1.58, 1.68, 2.44, 1.65, 2.4, 3.52, 5.98, 5.92, 5.6, 5.8, 7.25, 9.11, 9.37, 7.54, 3.06, -0.81, -1.8, -0.79, -0.88, -1.83, -1.99, -2.76, -2.6, -3.47, -3.91, -4.11, -3.79, -3.22, -2.95, -2.95, 7.13, 7.13, 7.13, 7.15, 7.15, 6.71, 6.71, 6.68, 6.68, 6.68, 6.68, 6.68, 6.68, 6.68, 6.23, 6.23, 6.68, 6.68, 6.68, 7.6, 7.15, 5.7, 4.17, 3.48, 3.48, 3.48, 3.48, 3.78, 3.78, 3.43, 3.43, 3.43, 3.43, 3.16, 3.16, 2.84, 3.14, 3.14, 3.6, 3.6, 3.82, 3.82, 3.39, 3.53, 3.97, 4.3, 4.6, 4.8, 4.55, 4.93, 4.93, 4.65, 5.21, 5.29, 5.29, 5.59, 5.98, 5.69, 5.69, 5.1, 4.46, 4.0, 3.01, 3.3, 3.3, 3.3, 3.35, 2.09, 1.67, 2.47, 2.31, 1.65, 2.21, 2.54, 3.7, 4.72, 6.2, 7.32, 7.45, 8.61, 8.85, 7.19, 2.9, -1.66, -2.41, -2.0, -1.66, -2.2, -2.95, -2.76, -2.99, -2.6, -3.22, -2.99, -2.76, -1.83, -1.83, -1.83, 7.13, 7.13, 7.13, 7.15, 7.15, 7.15, 7.15, 7.15, 7.13, 6.68, 6.68, 6.68, 6.68, 6.68, 6.68, 6.71, 6.71, 6.71, 6.71, 7.6, 7.15, 6.23, 4.4, 4.0, 3.73, 3.73, 4.0, 4.0, 4.0, 4.0, 3.88, 3.43, 3.43, 3.43, 3.43, 3.35, 3.35, 3.35, 3.6, 3.6, 3.82, 3.39, 3.39, 3.97, 3.98, 4.34, 4.6, 4.8, 4.8, 4.93, 4.65, 4.65, 4.71, 5.29, 5.01, 5.59, 5.98, 5.69, 5.69, 5.1, 4.46, 3.52, 2.97, 3.39, 3.45, 3.45, 3.52, 2.33, 1.6, 2.35, 2.54, 1.65, 1.75, 2.31, 2.44, 3.25, 4.75, 7.01, 7.45, 8.16, 9.66, 8.2, 2.9, -1.66, -3.58, -2.84, -2.0, -2.0, -2.0, -2.95, -2.53, -2.6, -1.84, -1.84, -0.88, -0.0, -0.0, -0.0, 7.51, 7.51, 7.58, 7.6, 7.15, 7.15, 7.15, 7.15, 7.13, 7.13, 7.13, 7.13, 6.68, 6.71, 6.71, 6.71, 6.71, 6.71, 6.71, 7.6, 7.15, 6.23, 5.09, 4.0, 4.0, 4.0, 4.0, 4.0, 4.0, 4.27, 4.27, 3.88, 3.72, 3.43, 3.72, 3.35, 3.35, 3.6, 3.6, 3.82, 3.82, 3.82, 3.82, 3.87, 4.34, 4.6, 5.02, 4.8, 4.55, 4.29, 4.65, 4.37, 4.71, 5.29, 5.01, 5.65, 5.98, 5.69, 6.01, 5.1, 4.71, 3.35, 2.97, 2.8, 3.21, 3.45, 2.33, 1.67, 1.6, 2.47, 2.28, 1.67, 2.44, 2.44, 2.35, 2.39, 4.13, 5.51, 6.31, 7.23, 9.92, 9.58, 4.4, -0.81, -3.6, -2.98, -1.98, -0.98, -0.88, -0.88, -0.0, -0.0, -0.0, -0.0, -0.0, -0.0, -0.0, -0.0, 7.51, 7.51, 7.58, 7.58, 7.6, 7.6, 7.15, 7.15, 7.15, 7.13, 7.13, 7.15, 7.15, 6.71, 6.71, 6.71, 6.71, 6.71, 7.15, 7.15, 7.15, 6.26, 5.24, 4.27, 4.0, 4.0, 4.0, 4.0, 4.0, 4.27, 4.27, 4.27, 3.88, 3.72, 3.72, 3.35, 3.6, 3.6, 3.6, 3.82, 3.82, 3.87, 4.11, 4.11, 4.6, 4.8, 4.8, 4.55, 4.37, 4.07, 4.07, 4.65, 4.71, 4.94, 5.01, 5.65, 5.65, 5.69, 6.01, 5.38, 4.71, 3.35, 2.83, 2.77, 2.93, 3.61, 2.33, 1.58, 1.68, 2.28, 2.47, 2.47, 2.44, 2.44, 2.35, 3.11, 3.95, 4.8, 5.86, 6.79, 8.72, 9.66, 6.56, 0.82, -2.97, -2.97, -1.6, -0.0, -0.0, -0.0, 1.4, 1.73, 1.73, 0.83, 1.84, 1.72, 1.72, 1.72, 7.52, 7.52, 7.58, 7.58, 7.58, 7.6, 7.15, 7.15, 7.15, 7.15, 7.6, 7.15, 7.15, 7.15, 6.71, 6.71, 6.71, 6.71, 6.71, 7.15, 7.15, 6.71, 5.7, 4.6, 4.0, 4.0, 4.0, 4.4, 4.8, 4.4, 4.4, 4.4, 4.27, 3.88, 3.88, 3.72, 3.6, 3.6, 3.7, 4.11, 4.11, 4.11, 4.27, 4.4, 4.8, 4.55, 4.55, 4.29, 4.07, 4.07, 4.07, 4.41, 4.71, 4.71, 5.35, 5.37, 5.65, 5.69, 6.01, 5.38, 4.71, 3.35, 2.83, 2.93, 2.9, 3.61, 2.21, 1.2, 1.09, 2.49, 2.39, 2.47, 2.47, 2.35, 2.28, 2.49, 3.36, 4.07, 5.76, 5.86, 6.56, 8.72, 8.99, 3.8, -1.79, -2.68, -1.8, -0.0, 0.89, 2.67, 3.45, 3.32, 3.32, 2.54, 2.51, 1.72, 1.72, 1.72, 7.97, 7.97, 7.51, 7.58, 7.58, 7.6, 7.15, 7.15, 7.6, 7.6, 7.6, 7.6, 7.15, 7.15, 6.71, 6.68, 6.68, 6.68, 6.71, 6.71, 7.15, 7.15, 6.23, 5.09, 4.4, 4.0, 4.55, 4.8, 4.8, 4.8, 4.8, 4.4, 4.6, 4.6, 4.27, 4.11, 4.11, 4.11, 4.11, 4.11, 4.27, 4.4, 4.8, 4.8, 4.55, 4.55, 4.55, 4.07, 4.07, 4.07, 4.07, 4.37, 4.71, 5.05, 5.35, 5.06, 5.65, 5.69, 5.69, 5.38, 4.71, 3.56, 2.83, 2.8, 2.77, 3.39, 2.17, 1.05, 1.16, 2.39, 2.49, 2.39, 2.39, 2.39, 2.49, 2.49, 3.21, 4.2, 5.14, 5.0, 5.2, 6.43, 9.66, 8.01, 1.98, -2.24, -0.88, -0.0, 2.31, 2.99, 3.32, 3.49, 3.36, 3.32, 2.4, 1.84, 1.84, 1.84, 7.97, 7.97, 7.97, 7.51, 7.58, 7.58, 7.15, 7.6, 7.6, 7.6, 7.6, 7.58, 7.13, 7.13, 6.68, 6.68, 6.68, 6.71, 6.71, 6.71, 7.15, 7.6, 6.68, 5.7, 5.02, 4.4, 4.8, 4.8, 4.8, 4.8, 4.8, 5.02, 5.02, 4.6, 4.6, 4.6, 4.6, 4.6, 4.6, 4.4, 4.4, 4.8, 4.8, 4.55, 4.55, 4.55, 4.65, 4.07, 4.41, 4.11, 4.11, 4.37, 4.71, 4.74, 5.35, 5.06, 5.65, 5.69, 5.69, 5.1, 4.46, 3.56, 2.86, 2.97, 2.39, 3.25, 2.47, 1.52, 0.81, 1.68, 1.76, 1.68, 1.62, 1.69, 2.31, 3.11, 3.49, 3.88, 4.8, 5.0, 4.13, 4.3, 7.36, 10.43, 7.59, 2.53, 0.74, 2.31, 2.97, 3.69, 3.78, 3.36, 2.59, 2.57, 1.65, 1.63, 1.63, 1.63, 7.87, 7.87, 7.4, 7.51, 7.51, 7.51, 7.13, 7.58, 7.58, 7.58, 7.58, 7.58, 7.13, 7.13, 6.68, 6.68, 6.68, 6.71, 6.71, 6.71, 7.15, 7.6, 7.15, 6.23, 5.09, 4.4, 4.8, 4.8, 4.8, 5.09, 5.09, 5.09, 5.09, 5.09, 5.02, 4.6, 4.6, 4.6, 4.4, 4.8, 4.8, 4.8, 4.55, 4.55, 4.93, 4.93, 4.65, 4.65, 4.11, 4.11, 4.37, 4.71, 4.71, 4.74, 5.01, 5.06, 5.37, 5.65, 5.38, 5.1, 4.46, 3.37, 2.86, 2.83, 2.28, 2.41, 2.39, 1.62, 0.78, 0.85, 1.68, 1.75, 0.85, 1.54, 2.39, 3.21, 4.2, 4.07, 3.95, 4.13, 3.51, 3.36, 5.0, 10.01, 11.14, 3.15, 2.4, 1.44, 2.82, 4.24, 4.48, 2.95, 1.47, 0.85, 0.84, 0.83, 0.83, 0.83, 7.87, 7.69, 7.26, 7.4, 7.4, 7.51, 7.51, 7.51, 7.51, 7.51, 7.51, 7.58, 7.13, 7.13, 7.13, 6.71, 6.71, 6.71, 7.15, 7.15, 7.6, 7.6, 7.6, 6.68, 5.7, 5.09, 4.8, 4.8, 5.09, 5.09, 5.09, 5.09, 5.09, 5.09, 5.09, 5.09, 5.09, 5.02, 4.8, 4.8, 4.8, 4.8, 4.55, 4.93, 4.93, 4.65, 4.65, 4.65, 4.37, 4.65, 4.65, 4.71, 4.94, 4.74, 5.01, 5.35, 5.37, 5.37, 5.08, 5.1, 4.73, 3.6, 2.89, 2.86, 2.97, 2.28, 1.56, 1.56, 0.79, 0.78, 1.6, 1.6, 0.85, -0.0, 1.75, 3.15, 4.0, 4.07, 4.25, 4.07, 3.32, 3.45, 4.34, 8.64, 7.8, 4.5, 2.18, 0.77, 1.45, 3.6, 4.94, 3.68, 1.76, 0.8, -0.0, -0.0, -0.0, -0.0, 7.69, 7.69, 7.26, 7.26, 7.4, 7.4, 7.4, 7.4, 7.51, 7.51, 7.58, 7.58, 7.15, 7.15, 7.15, 7.6, 7.6, 7.15, 7.6, 7.58, 7.58, 7.58, 7.58, 7.13, 6.16, 5.51, 5.09, 5.09, 5.09, 5.09, 5.09, 5.09, 5.09, 5.09, 5.09, 5.09, 5.09, 5.09, 4.8, 4.8, 4.8, 4.8, 4.55, 4.93, 4.93, 4.65, 4.65, 4.65, 4.65, 4.65, 5.01, 4.71, 4.94, 5.01, 5.01, 5.35, 5.06, 5.37, 5.37, 5.08, 4.73, 3.6, 2.89, 2.86, 2.83, 2.28, 1.63, 0.76, 0.79, 1.54, 1.6, 1.6, 0.77, 0.85, 1.58, 3.27, 4.0, 4.25, 4.07, 3.32, 3.45, 4.12, 5.1, 10.01, 7.59, 3.8, 2.31, 1.47, 1.5, 2.88, 4.48, 2.88, 0.85, -0.0, -0.0, -0.0, -0.0, -0.0, 7.69, 7.69, 7.26, 7.26, 7.26, 7.4, 7.4, 7.4, 7.51, 7.51, 7.58, 7.6, 7.6, 7.6, 7.6, 7.6, 8.03, 8.03, 7.58, 8.03, 7.97, 7.97, 7.97, 7.58, 7.06, 6.14, 5.09, 5.09, 5.51, 5.57, 5.7, 5.7, 5.7, 5.24, 5.24, 5.09, 5.09, 5.09, 4.9, 4.8, 4.8, 4.8, 4.55, 4.93, 4.93, 4.65, 4.65, 4.65, 4.65, 4.65, 5.21, 4.94, 5.29, 5.29, 5.01, 5.01, 5.35, 5.06, 5.37, 5.08, 4.47, 3.4, 2.92, 2.89, 2.86, 2.42, 1.71, 0.57, -0.0, 0.78, 0.81, 0.81, 1.67, 1.67, 2.31, 2.44, 3.21, 3.25, 3.36, 3.32, 3.32, 4.6, 8.31, 9.34, 5.94, 3.09, 1.52, 1.5, 2.15, 2.95, 3.07, 2.21, 0.85, -0.0, -0.0, -0.89, -0.89, -0.89, 7.74, 7.74, 7.74, 7.74, 7.87, 7.87, 7.87, 7.87, 7.97, 7.58, 7.58, 7.6, 7.6, 7.6, 8.05, 8.03, 8.03, 8.03, 8.03, 7.97, 7.97, 7.97, 8.41, 7.97, 7.51, 6.6, 5.57, 5.51, 5.57, 5.57, 5.7, 5.7, 5.7, 5.7, 5.24, 5.24, 5.09, 5.09, 5.09, 4.9, 4.9, 4.8, 5.08, 5.08, 5.08, 4.84, 4.84, 4.84, 5.21, 5.21, 5.21, 5.21, 4.94, 5.29, 5.01, 5.01, 5.35, 5.35, 5.37, 5.08, 4.47, 4.08, 2.92, 2.92, 2.89, 2.3, 1.81, 0.57, -0.0, -0.0, 0.85, 0.77, 1.58, 2.31, 2.54, 1.67, 2.47, 3.11, 3.78, 4.07, 4.07, 4.92, 8.18, 8.95, 5.76, 2.44, 1.68, 2.41, 2.1, 3.07, 2.31, 1.52, -0.0, -0.0, -0.89, -0.88, -0.88, -0.88, 7.87, 7.87, 7.87, 7.87, 8.3, 8.3, 8.3, 7.97, 7.97, 8.03, 8.03, 8.05, 8.05, 8.05, 8.03, 8.03, 8.47, 8.47, 8.03, 8.03, 8.03, 8.03, 8.03, 7.97, 7.51, 7.06, 6.16, 5.57, 5.57, 5.7, 6.16, 6.16, 6.16, 5.7, 5.7, 5.7, 5.24, 5.09, 5.51, 5.31, 5.31, 5.31, 5.08, 5.08, 5.08, 5.47, 5.21, 5.21, 5.21, 5.21, 5.21, 5.21, 4.94, 5.29, 5.29, 5.01, 5.35, 5.35, 5.37, 4.75, 4.75, 4.08, 3.4, 2.92, 2.89, 2.33, 1.73, 0.57, -0.0, -0.0, 0.78, 0.81, 1.67, 2.31, 2.44, 2.44, 2.31, 2.35, 4.07, 3.95, 3.95, 5.72, 7.49, 9.25, 7.49, 3.39, 2.21, 2.1, 2.88, 2.95, 1.47, -0.0, -0.0, -0.89, -1.84, -1.99, -1.99, -1.99, 8.3, 8.3, 8.3, 8.33, 8.33, 8.42, 8.42, 8.42, 8.47, 8.03, 8.03, 8.05, 8.05, 8.05, 8.03, 8.47, 8.47, 8.47, 8.03, 8.03, 8.03, 8.03, 8.03, 8.03, 8.03, 7.51, 6.61, 6.16, 5.7, 5.7, 6.16, 6.16, 6.6, 6.23, 6.16, 5.7, 5.7, 5.57, 5.57, 5.31, 5.31, 5.31, 5.08, 5.47, 5.47, 5.47, 5.47, 5.21, 5.47, 5.21, 5.21, 5.21, 4.94, 5.29, 5.29, 5.01, 5.35, 5.35, 5.37, 5.08, 4.75, 3.84, 3.42, 2.96, 2.92, 2.33, 1.65, 0.58, -0.0, -0.0, 0.79, 0.82, 1.6, 2.57, 2.57, 2.35, 2.57, 2.44, 3.21, 4.07, 5.0, 5.72, 7.01, 8.99, 8.99, 5.6, 2.88, 2.99, 3.68, 3.53, 0.77, -0.78, -0.82, -1.84, -1.84, -1.99, -1.99, -1.99, 8.33, 8.33, 8.33, 8.42, 8.86, 8.86, 8.42, 8.42, 8.47, 8.47, 8.05, 8.05, 8.05, 8.05, 8.03, 8.47, 8.47, 8.47, 8.47, 8.03, 8.03, 8.03, 8.03, 8.03, 8.03, 7.58, 7.58, 6.68, 6.23, 5.78, 6.23, 6.23, 6.68, 6.68, 6.68, 6.16, 6.16, 5.99, 5.99, 5.81, 5.81, 5.81, 5.6, 5.6, 5.6, 5.6, 5.6, 5.6, 5.6, 5.21, 5.21, 5.21, 5.29, 5.29, 5.29, 5.01, 5.35, 5.59, 5.06, 5.06, 4.47, 4.1, 3.42, 3.42, 2.92, 2.89, 1.75, 0.59, -0.0, -0.0, -0.0, 0.82, 1.68, 2.35, 2.35, 3.11, 3.11, 3.21, 3.21, 4.92, 5.0, 5.51, 6.79, 8.05, 8.18, 6.31, 4.21, 3.6, 4.39, 3.68, 0.71, -1.6, -2.4, -2.99, -2.99, -3.22, -3.22, -3.22, 8.42, 8.42, 8.86, 8.86, 8.86, 8.86, 8.86, 8.47, 8.47, 8.47, 8.49, 8.05, 8.05, 8.05, 8.05, 8.47, 8.47, 8.47, 8.47, 8.03, 8.03, 8.03, 8.03, 8.03, 8.03, 8.03, 7.58, 7.13, 6.68, 6.23, 6.26, 6.26, 6.71, 6.68, 6.68, 6.61, 6.6, 6.47, 5.88, 5.81, 5.81, 5.81, 5.6, 5.6, 5.6, 6.0, 6.0, 5.6, 5.6, 5.37, 5.37, 5.58, 5.29, 5.29, 5.29, 5.35, 5.59, 5.59, 5.06, 5.06, 4.47, 4.1, 4.1, 3.42, 2.92, 2.89, 2.19, 1.11, -0.0, -0.0, -0.0, 0.85, 1.54, 2.57, 2.35, 3.11, 3.25, 3.36, 4.07, 4.92, 5.0, 4.87, 6.43, 7.49, 8.31, 6.65, 4.21, 3.6, 4.39, 4.24, 1.47, -2.6, -3.79, -3.63, -3.63, -3.22, -3.22, -3.22, 8.86, 8.86, 8.86, 8.87, 8.87, 8.87, 8.92, 8.47, 8.47, 8.47, 8.49, 8.49, 8.05, 8.05, 8.05, 8.49, 8.47, 8.47, 8.47, 8.03, 8.03, 8.03, 8.03, 8.03, 8.03, 8.03, 8.03, 7.58, 7.13, 6.68, 6.26, 6.26, 6.26, 6.71, 6.68, 6.61, 6.51, 6.47, 6.3, 6.3, 6.3, 6.3, 6.1, 6.1, 6.0, 6.0, 6.0, 6.0, 6.0, 5.75, 5.75, 5.75, 5.49, 5.49, 5.86, 5.86, 5.59, 5.59, 5.35, 5.06, 4.75, 4.47, 4.1, 3.42, 3.4, 2.89, 2.33, 1.18, -0.0, -0.0, -0.0, 0.82, 1.69, 2.28, 2.47, 2.39, 3.25, 4.07, 3.51, 3.39, 4.01, 5.06, 5.6, 7.49, 7.36, 6.52, 4.81, 3.96, 4.39, 5.1, 2.21, -1.7, -4.8, -4.54, -3.79, -3.48, -3.48, -3.48, 8.87, 8.87, 8.87, 8.87, 8.87, 8.92, 8.92, 8.47, 8.47, 8.49, 8.49, 8.49, 8.49, 8.05, 8.05, 8.49, 8.49, 8.49, 8.49, 8.05, 8.05, 8.03, 8.03, 8.03, 8.03, 8.03, 8.03, 8.03, 8.03, 7.58, 7.15, 6.71, 6.71, 6.71, 6.68, 6.61, 7.06, 6.94, 6.94, 6.3, 6.3, 6.3, 6.3, 6.1, 6.1, 6.1, 6.51, 6.1, 6.1, 6.0, 5.75, 5.75, 5.86, 5.86, 5.86, 5.86, 5.86, 5.59, 5.35, 5.35, 4.75, 4.47, 4.1, 3.84, 3.4, 2.89, 2.33, 1.18, -0.0, -0.0, -0.0, 0.55, 1.16, 2.33, 1.62, 2.49, 3.25, 3.25, 3.25, 2.41, 2.51, 4.17, 4.75, 6.65, 7.36, 6.4, 5.55, 4.81, 4.81, 4.93, 4.3, -0.0, -4.22, -4.8, -4.19, -3.79, -3.79, -3.79, 8.87, 8.87, 8.87, 8.87, 8.87, 8.92, 8.92, 8.47, 8.47, 8.49, 8.49, 8.49, 8.49, 8.05, 8.05, 8.49, 8.49, 8.49, 8.49, 8.05, 8.05, 8.03, 8.03, 8.03, 8.03, 8.03, 8.03, 8.03, 8.03, 7.58, 7.15, 6.71, 6.71, 6.71, 6.68, 6.61, 7.06, 6.94, 6.94, 6.3, 6.3, 6.3, 6.3, 6.1, 6.1, 6.1, 6.51, 6.1, 6.1, 6.0, 5.75, 5.75, 5.86, 5.86, 5.86, 5.86, 5.86, 5.59, 5.35, 5.35, 4.75, 4.47, 4.1, 3.84, 3.4, 2.89, 2.33, 1.18, -0.0, -0.0, -0.0, 0.55, 1.16, 2.33, 1.62, 2.49, 3.11, 3.25, 3.25, 2.41, 2.51, 3.29, 4.17, 5.6, 6.52, 6.4, 5.73, 5.55, 4.81, 4.93, 4.87, 1.75, -2.2, -4.6, -4.54, -4.11, -4.11, -4.11]}, {"header": {"dx": 0.06612293990616946, "dy": 0.0552356325346848, "nx": 98, "ny": 59, "la1": 35.046912555036876, "la2": 31.78801023549047, "lo1": -121.43107172385933, "lo2": -114.95102361305473, "refTime": "2026041117", "parameterCategory": 1, "parameterNumber": 3}, "data": [2.24, 2.68, 2.68, 2.68, 2.24, 2.12, 2.12, 2.12, 1.7, 2.24, 1.86, 1.58, 2.8, 3.13, 3.39, 3.82, 3.35, 3.35, 3.48, 3.48, 3.48, 1.8, 1.2, 1.58, 0.0, 0.0, -0.0, -0.0, -0.0, -1.98, -2.84, -3.58, -4.0, -4.0, -4.34, -3.39, -2.68, -1.79, 0.0, 0.0, 0.0, 0.0, 0.0, 0.0, 1.55, 2.23, 3.16, 4.0, 3.16, 2.48, 1.27, 1.13, 1.4, 2.8, 3.39, 4.0, 5.09, 6.16, 7.35, 7.6, 6.4, 5.21, 4.54, 2.76, 1.66, 2.0, 3.35, 3.58, 2.23, 0.96, 1.99, 2.2, 2.68, 2.68, 2.95, 1.99, 1.99, 1.8, -0.0, -0.0, -0.0, -0.0, 2.8, 4.47, 6.26, 7.6, 8.45, 8.8, 9.24, 9.24, 9.24, 8.9, 8.94, 8.9, 8.33, 8.33, 8.49, 8.45, 2.24, 2.24, 2.24, 2.24, 2.24, 2.24, 2.24, 2.12, 2.17, 2.24, 2.63, 4.0, 3.39, 3.13, 4.02, 3.6, 3.35, 4.4, 4.4, 3.35, 3.79, 3.48, 1.8, 2.53, 0.0, 0.0, 0.0, 0.0, 0.0, -1.58, -2.8, -3.39, -4.34, -4.82, -4.34, -3.82, -3.39, -2.4, -1.79, 0.0, 0.0, 0.0, 0.0, 0.0, 1.13, 2.23, 3.72, 4.0, 3.35, 1.98, 0.0, 0.0, 0.0, 2.4, 2.97, 4.02, 4.38, 5.09, 6.28, 6.82, 6.44, 5.77, 4.74, 3.47, 1.83, 1.8, 2.21, 2.68, 1.13, 0.96, 0.88, 1.99, 2.76, 3.22, 3.63, 2.8, 2.8, 1.8, -0.0, -0.0, -0.0, -0.0, 2.8, 4.47, 6.26, 7.6, 8.45, 8.8, 9.24, 9.24, 9.24, 8.9, 8.94, 8.9, 8.33, 8.33, 8.49, 8.45, 1.79, 2.24, 2.24, 2.24, 2.17, 2.17, 2.17, 2.24, 2.68, 2.68, 3.07, 2.68, 3.35, 2.97, 2.4, 2.8, 2.98, 3.35, 3.72, 3.79, 3.35, 3.79, 3.48, 3.16, 1.8, 0.0, -1.79, -2.24, -2.24, 0.0, 0.0, 0.0, -1.9, -4.47, -4.02, -4.92, -4.34, -3.35, -2.8, -2.24, 0.0, 1.0, 1.2, 1.2, 1.4, 2.53, 3.35, 3.35, 2.53, 0.99, 0.0, 0.0, 0.0, 2.4, 3.13, 3.58, 3.58, 4.02, 4.8, 5.46, 6.44, 6.82, 6.82, 5.82, 4.84, 3.2, 2.4, 1.58, -0.0, -0.0, -0.0, 0.89, 2.8, 3.91, 3.91, 3.91, 1.98, 1.99, 0.79, 1.27, 2.23, 4.0, 5.29, 6.71, 7.15, 7.6, 7.56, 8.77, 9.24, 9.24, 8.9, 8.49, 8.49, 8.33, 7.63, 7.85, 8.05, 8.44, 1.79, 2.24, 2.24, 2.24, 2.17, 2.17, 2.4, 2.4, 2.63, 2.68, 2.63, 2.68, 3.72, 3.39, 3.39, 3.39, 3.39, 3.82, 4.0, 3.93, 3.16, 3.48, 3.48, 2.23, 2.23, 1.8, 0.0, -2.24, -2.24, 0.0, 2.68, 2.98, 2.23, 2.2, 0.0, 0.0, 0.0, -0.0, -0.0, 2.24, 2.68, 2.4, 1.9, 1.9, 1.9, 2.8, 2.8, 2.21, 1.4, 0.0, -0.71, -1.0, 0.0, 2.53, 3.58, 3.58, 3.13, 3.58, 4.15, 6.16, 7.76, 9.06, 9.06, 9.06, 7.89, 5.36, 3.13, 0.0, -1.2, -1.8, -0.0, 0.83, 1.73, 3.11, 3.22, 2.76, 1.99, 2.99, 2.4, 4.29, 5.59, 6.65, 7.55, 8.05, 8.49, 8.94, 9.35, 9.24, 9.24, 8.9, 8.49, 8.49, 8.45, 7.85, 7.63, 7.55, 8.05, 8.44, 1.79, 2.24, 2.24, 2.24, 2.6, 2.6, 2.4, 2.8, 2.91, 3.39, 3.39, 2.68, 3.35, 3.39, 3.39, 3.82, 3.39, 3.82, 3.9, 4.57, 5.51, 5.51, 5.09, 3.79, 2.84, 3.48, 2.84, 0.0, 0.0, 2.68, 3.58, 3.82, 3.16, 3.93, 4.84, 5.51, 5.51, 5.36, 3.9, 4.34, 4.02, 3.39, 2.68, 2.24, 1.79, 2.24, 1.58, 0.0, 0.0, 0.0, -1.74, -1.74, 0.0, 1.98, 3.9, 3.58, 3.13, 3.58, 4.92, 8.01, 9.8, 10.6, 11.06, 11.96, 11.15, 7.6, 4.47, 2.68, 0.0, -2.21, -0.0, -0.0, 1.63, 1.84, 2.16, 1.8, 2.95, 4.11, 5.58, 5.75, 6.98, 7.85, 8.45, 8.45, 8.9, 9.8, 10.25, 10.25, 9.35, 8.94, 8.49, 8.49, 8.45, 7.63, 7.37, 8.05, 8.45, 8.45, 1.79, 2.24, 2.24, 2.68, 2.68, 2.63, 3.07, 2.91, 3.82, 4.3, 4.11, 3.72, 2.23, 1.9, 2.4, 3.39, 3.82, 3.82, 3.9, 4.34, 4.82, 5.26, 6.07, 6.07, 5.51, 5.51, 5.09, 5.09, 5.51, 5.51, 3.35, 2.53, 2.23, 3.58, 4.98, 5.59, 5.6, 4.98, 4.92, 4.57, 4.92, 5.09, 3.82, 2.4, 2.24, 2.24, 1.79, 0.0, 0.0, 0.0, -1.8, -1.8, 0.0, 2.23, 3.82, 3.13, 2.68, 3.58, 6.71, 10.28, 11.18, 11.6, 12.42, 13.39, 13.39, 9.83, 5.36, 3.13, 2.8, 2.24, 1.4, 1.83, 2.8, 3.0, 1.99, 2.23, 3.72, 5.94, 7.63, 6.21, 7.53, 8.06, 8.33, 8.77, 9.06, 9.49, 9.68, 9.35, 8.94, 8.49, 8.94, 8.9, 8.29, 7.63, 7.42, 8.05, 8.45, 8.45, 2.12, 2.24, 2.68, 2.68, 2.68, 3.13, 3.58, 3.53, 3.98, 4.34, 5.02, 4.8, 3.16, 1.9, 3.13, 2.4, 3.39, 3.39, 3.39, 3.47, 3.9, 4.34, 4.92, 5.81, 6.26, 5.81, 5.81, 6.07, 6.07, 4.29, 4.84, 3.35, 3.35, 4.0, 4.85, 5.51, 5.6, 6.0, 5.81, 4.57, 6.26, 6.26, 5.64, 4.66, 4.66, 3.9, 3.39, 1.2, 0.0, 0.0, 0.0, 0.0, 2.0, 2.23, 2.21, 1.9, 1.58, 4.02, 8.49, 11.62, 12.07, 12.52, 13.39, 14.28, 14.09, 11.51, 6.71, 3.58, 3.58, 3.58, 3.35, 2.95, 2.6, 2.8, 3.22, 4.0, 5.73, 8.0, 9.7, 9.49, 7.82, 7.76, 7.63, 8.06, 8.06, 7.71, 7.85, 8.0, 8.05, 8.05, 8.05, 7.56, 7.63, 7.37, 7.6, 8.45, 8.45, 8.49, 2.12, 2.17, 2.68, 2.68, 3.13, 3.13, 3.58, 4.02, 3.98, 4.44, 4.8, 5.09, 4.57, 4.34, 4.02, 2.97, 3.39, 3.9, 3.9, 3.9, 2.98, 2.97, 4.02, 4.82, 4.82, 5.36, 5.36, 5.51, 4.84, 4.84, 5.09, 5.64, 6.07, 6.07, 5.09, 5.09, 4.22, 4.6, 6.07, 6.26, 6.26, 6.26, 5.64, 5.51, 5.51, 5.6, 3.93, 3.16, 2.23, 1.7, 1.83, 2.76, 3.79, 3.16, 2.21, 1.2, 1.4, 4.82, 9.39, 12.52, 12.96, 12.96, 13.41, 13.76, 13.49, 11.61, 7.1, 3.39, 3.2, 2.53, 2.48, 1.99, 1.84, 1.99, 2.95, 5.59, 8.9, 10.6, 11.51, 10.7, 7.92, 6.07, 5.46, 5.09, 5.43, 5.43, 5.75, 6.45, 7.1, 7.15, 6.71, 7.11, 7.42, 8.0, 8.05, 8.45, 8.9, 8.49, 1.86, 2.6, 2.6, 2.6, 3.07, 3.13, 3.58, 3.58, 4.02, 4.47, 4.44, 4.89, 6.71, 5.73, 5.26, 4.92, 4.92, 4.92, 4.82, 4.82, 5.09, 4.92, 4.47, 4.92, 4.82, 5.36, 4.92, 5.09, 4.84, 4.66, 4.92, 5.81, 6.26, 6.51, 4.98, 3.93, 5.09, 6.07, 6.51, 6.71, 6.71, 5.81, 5.09, 5.09, 5.51, 4.57, 4.84, 4.43, 4.43, 3.91, 4.29, 4.11, 4.98, 4.57, 3.35, 1.13, 0.98, 4.98, 9.83, 13.41, 13.86, 13.41, 12.52, 12.49, 12.3, 11.5, 6.7, 2.4, 1.2, 1.13, 0.96, -0.0, -0.0, -0.0, 2.68, 7.2, 10.68, 12.27, 11.95, 10.28, 9.39, 5.82, 3.79, 3.07, 3.07, 3.07, 4.19, 4.98, 5.09, 5.75, 6.26, 6.71, 7.6, 8.94, 8.9, 8.9, 8.94, 8.49, 2.15, 2.4, 2.4, 2.6, 3.07, 3.07, 3.07, 3.13, 3.58, 4.02, 4.02, 4.44, 4.44, 4.77, 5.73, 5.81, 5.81, 5.81, 6.26, 6.07, 6.07, 6.26, 6.26, 6.26, 6.26, 5.36, 5.36, 5.81, 5.51, 4.66, 4.92, 5.81, 5.81, 6.07, 5.58, 4.43, 4.84, 4.82, 6.51, 6.0, 5.51, 4.98, 4.0, 3.9, 3.35, 4.0, 3.93, 3.63, 4.58, 5.37, 5.77, 6.18, 6.7, 6.45, 5.51, 3.93, 3.79, 5.2, 8.94, 13.41, 14.28, 13.41, 12.96, 11.59, 11.18, 11.09, 7.12, -0.0, -0.0, -0.0, -0.0, -0.81, -1.66, -1.8, 1.66, 7.32, 11.5, 11.61, 10.18, 9.83, 8.91, 8.01, 5.09, 2.68, 1.49, 0.88, 1.66, 2.68, 3.58, 5.09, 6.07, 7.11, 8.45, 8.9, 8.9, 8.9, 8.49, 8.49, 2.5, 2.15, 2.4, 2.8, 2.8, 2.91, 3.07, 3.07, 3.13, 3.58, 3.58, 3.98, 3.98, 3.98, 5.73, 5.73, 5.73, 3.98, 3.39, 3.07, 4.57, 4.98, 4.98, 4.98, 5.64, 5.81, 5.81, 5.81, 5.51, 5.09, 4.66, 4.47, 4.34, 4.4, 3.93, 4.43, 6.0, 6.4, 5.2, 5.21, 4.89, 4.19, 3.58, 4.0, 4.0, 3.6, 3.93, 3.63, 4.74, 5.82, 8.72, 9.75, 10.18, 9.97, 9.24, 8.56, 7.63, 6.02, 8.49, 12.96, 13.86, 12.94, 11.59, 10.25, 9.7, 10.68, 7.21, 0.0, -1.98, -0.98, -1.08, -2.41, -3.6, -3.2, 1.8, 9.2, 11.72, 10.68, 9.68, 8.94, 8.46, 7.89, 7.56, 4.85, 1.74, -0.0, -0.0, 1.8, 3.22, 4.6, 5.75, 7.37, 7.85, 8.45, 8.45, 8.49, 8.49, 8.49, 2.5, 2.5, 2.5, 2.68, 2.68, 2.68, 2.91, 2.91, 3.07, 3.13, 3.58, 3.53, 3.53, 3.98, 3.98, 3.87, 4.11, 4.11, 3.6, 3.07, 2.79, 3.14, 2.84, 4.43, 5.2, 5.64, 5.2, 3.32, 4.4, 4.46, 4.46, 4.4, 4.0, 3.35, 3.16, 3.79, 4.84, 5.21, 4.98, 4.54, 3.63, 3.22, 2.0, 1.8, 3.6, 3.9, 5.64, 6.4, 7.06, 8.38, 9.79, 10.6, 11.51, 12.42, 11.84, 11.84, 11.11, 7.42, 8.01, 11.59, 12.52, 12.04, 11.05, 8.45, 8.49, 10.73, 9.83, 2.68, -3.16, -2.95, -1.6, -2.97, -4.02, -4.82, 2.8, 11.36, 12.74, 10.6, 7.89, 6.71, 7.55, 8.33, 8.45, 7.15, 4.92, 2.21, 1.13, 2.84, 4.22, 4.8, 5.05, 6.28, 6.98, 7.85, 8.0, 8.05, 8.05, 8.45, 2.5, 2.5, 2.68, 3.07, 3.07, 3.07, 2.68, 2.5, 2.4, 2.68, 3.13, 3.53, 3.53, 3.53, 3.53, 3.82, 3.7, 4.11, 3.72, 3.35, 2.79, 2.79, 2.84, 2.84, 2.84, 2.84, 2.84, 2.84, 2.53, 2.53, 2.95, 3.93, 3.16, 3.35, 4.0, 3.93, 3.84, 3.79, 3.79, 2.95, 2.76, 2.53, 2.0, 2.21, 3.58, 4.92, 5.81, 6.71, 7.15, 7.6, 7.15, 7.12, 8.49, 9.83, 11.12, 11.4, 11.21, 9.21, 8.05, 10.25, 11.18, 10.7, 10.14, 8.01, 8.49, 10.25, 10.7, 8.49, 2.8, -2.23, -4.6, -4.82, -5.29, -5.51, 5.36, 12.94, 12.96, 9.83, 7.15, 5.81, 6.21, 8.0, 8.05, 8.05, 7.6, 5.81, 4.82, 4.57, 5.09, 5.16, 4.8, 5.75, 6.51, 7.1, 7.6, 7.6, 8.0, 8.9, 1.86, 2.5, 2.5, 3.07, 3.07, 3.07, 3.07, 2.68, 2.5, 2.6, 2.68, 3.13, 3.53, 3.39, 3.39, 3.39, 3.82, 4.11, 3.88, 3.72, 3.35, 3.14, 3.14, 2.84, 2.84, 2.23, 2.23, 2.23, 2.53, 2.53, 2.23, 2.95, 3.79, 2.84, 2.84, 3.16, 3.16, 3.16, 2.0, 2.0, 2.0, 1.08, 1.55, 2.84, 3.58, 4.92, 4.47, 5.81, 5.81, 5.81, 5.81, 5.81, 6.26, 6.71, 7.06, 7.28, 8.63, 10.79, 11.12, 9.39, 10.28, 10.73, 11.12, 10.22, 9.39, 8.49, 9.36, 11.08, 10.73, 5.29, 0.0, -4.34, -5.36, -1.6, 9.49, 13.32, 11.96, 9.24, 7.55, 6.65, 7.1, 7.6, 7.15, 6.66, 7.6, 8.0, 6.71, 6.26, 5.81, 5.36, 5.31, 5.59, 5.75, 6.2, 6.71, 7.6, 8.45, 8.77, 1.6, 1.86, 2.5, 2.68, 3.07, 3.2, 3.2, 3.07, 2.68, 2.8, 2.6, 2.68, 3.13, 3.07, 3.39, 3.39, 3.39, 3.87, 4.11, 3.72, 3.35, 3.35, 3.35, 2.84, 2.23, 1.84, 1.88, 1.61, 1.88, 1.88, 1.88, 2.23, 2.98, 3.79, 3.48, 4.46, 3.79, 2.0, 1.55, 0.98, 0.0, 0.0, 0.0, 2.84, 3.58, 4.02, 4.92, 4.92, 5.2, 5.36, 5.36, 5.36, 4.92, 4.02, 4.47, 6.14, 7.21, 9.4, 10.32, 9.32, 8.94, 9.39, 9.83, 10.73, 10.47, 7.97, 9.32, 12.47, 13.36, 12.27, 9.49, 6.79, 5.06, 8.82, 13.39, 12.98, 10.68, 8.14, 6.94, 6.94, 7.54, 6.71, 5.81, 5.75, 6.21, 8.01, 8.33, 7.85, 6.66, 6.65, 6.26, 5.81, 5.81, 6.26, 7.1, 8.33, 8.77, 8.77, 1.34, 1.34, 2.12, 2.4, 2.68, 3.39, 3.39, 3.2, 3.07, 2.68, 2.4, 2.6, 2.68, 3.07, 3.07, 3.53, 3.53, 3.82, 3.6, 3.35, 2.79, 3.2, 3.35, 2.84, 1.84, 1.16, 0.54, 0.57, 1.26, 1.58, 1.9, 1.88, 1.84, 2.98, 3.79, 3.58, 2.95, 2.0, 0.0, 0.0, 0.0, 1.13, 1.8, 1.8, 2.53, 4.02, 4.92, 4.92, 4.92, 4.66, 4.92, 4.47, 4.47, 4.47, 4.47, 5.36, 6.26, 7.06, 8.17, 7.4, 6.7, 7.6, 7.6, 8.05, 7.74, 7.81, 8.46, 12.75, 13.86, 14.26, 13.72, 13.68, 13.23, 13.89, 14.85, 13.83, 10.55, 7.63, 6.45, 7.37, 6.94, 6.2, 5.36, 5.81, 6.26, 6.64, 8.33, 8.72, 8.72, 8.56, 8.06, 6.07, 6.98, 7.89, 7.92, 8.19, 8.63, 8.63, 0.6, 1.2, 1.79, 2.24, 2.6, 2.91, 3.39, 3.39, 3.39, 3.32, 2.91, 2.4, 2.63, 2.68, 3.07, 3.07, 3.53, 3.82, 3.6, 2.79, 2.5, 3.39, 3.88, 3.16, 1.16, 0.0, 0.0, 0.0, 0.63, 1.26, 1.58, 1.49, 1.88, 2.98, 3.58, 3.48, 2.95, 3.22, 1.55, 2.0, 1.8, 2.53, 3.16, 2.53, 4.0, 4.66, 4.92, 4.92, 4.92, 4.47, 4.02, 4.02, 4.47, 4.66, 5.2, 5.2, 5.36, 4.24, 4.09, 4.74, 5.59, 6.23, 5.81, 5.36, 5.4, 6.28, 9.39, 11.99, 12.91, 12.96, 13.02, 11.17, 12.09, 13.18, 13.85, 13.51, 11.64, 9.36, 8.14, 8.33, 7.85, 7.1, 6.71, 6.71, 7.1, 7.42, 7.85, 9.36, 9.49, 9.9, 8.14, 7.47, 8.19, 8.91, 9.24, 8.4, 8.4, 8.4, 0.8, 0.8, 1.26, 1.7, 2.24, 2.68, 3.07, 3.53, 3.53, 3.53, 3.32, 2.91, 3.07, 2.68, 3.13, 3.13, 3.53, 3.82, 3.14, 2.21, 2.4, 3.53, 4.6, 3.43, 1.88, 0.0, 0.63, 0.95, 1.6, 1.86, 1.9, 1.49, 1.2, 1.4, 1.84, 2.68, 2.68, 3.22, 3.22, 3.79, 4.46, 4.46, 4.46, 3.79, 4.84, 5.2, 4.84, 4.46, 4.66, 4.66, 4.0, 4.0, 4.24, 4.66, 5.2, 4.46, 4.46, 3.72, 3.48, 4.11, 4.74, 6.52, 6.64, 6.61, 5.81, 5.75, 8.49, 11.13, 9.77, 8.94, 8.93, 8.95, 9.66, 10.54, 10.84, 11.28, 12.7, 13.39, 12.3, 10.89, 9.68, 8.9, 8.45, 9.11, 9.49, 9.97, 10.68, 10.18, 10.85, 10.96, 10.55, 9.36, 8.91, 9.83, 9.49, 8.95, 8.14, 8.14, 0.57, 0.71, 1.24, 1.24, 1.86, 2.6, 2.68, 3.13, 3.07, 3.09, 3.09, 3.07, 3.07, 3.07, 2.68, 4.02, 3.58, 3.97, 3.2, 2.5, 2.6, 3.98, 4.77, 5.51, 4.4, 4.4, 2.49, 4.4, 3.93, 3.35, 2.84, 2.51, 1.84, 1.16, 1.16, 1.16, 1.33, 1.8, 2.76, 4.02, 4.43, 4.74, 4.56, 5.06, 5.37, 5.06, 4.02, 4.43, 4.11, 4.46, 4.46, 4.46, 4.66, 5.09, 5.6, 5.36, 5.01, 5.01, 5.36, 5.36, 5.06, 5.93, 7.2, 7.42, 6.28, 6.28, 9.39, 10.6, 8.01, 7.15, 6.63, 6.43, 7.2, 7.23, 7.13, 8.56, 11.05, 13.01, 13.72, 12.53, 9.68, 9.24, 9.49, 9.4, 10.18, 10.68, 10.68, 10.27, 10.96, 10.94, 11.2, 10.96, 10.32, 9.6, 10.0, 9.03, 8.21, 8.21, 0.71, 1.0, 1.2, 1.2, 1.61, 1.9, 2.4, 2.6, 2.68, 3.13, 3.13, 3.13, 3.07, 3.07, 3.07, 2.63, 3.13, 3.58, 4.82, 4.57, 4.38, 3.98, 4.3, 4.98, 4.98, 4.6, 4.98, 4.37, 4.41, 4.11, 4.11, 3.49, 2.44, 1.76, 1.13, 1.13, 1.13, 1.27, 1.76, 2.4, 2.82, 3.22, 3.45, 4.1, 4.1, 5.03, 4.29, 4.02, 3.76, 3.22, 4.46, 4.46, 5.2, 5.2, 4.98, 5.58, 6.28, 5.46, 5.15, 5.06, 5.93, 7.2, 8.17, 9.32, 7.21, 7.71, 10.25, 10.73, 8.46, 6.16, 4.26, 3.32, 3.17, 2.49, 3.93, 6.64, 8.45, 9.35, 11.18, 11.18, 10.25, 9.75, 9.66, 9.75, 9.75, 9.6, 9.34, 9.45, 9.84, 9.45, 10.55, 10.63, 10.55, 9.9, 8.88, 8.42, 7.81, 7.81, 0.65, 1.2, 1.2, 1.4, 1.88, 1.88, 1.88, 1.9, 2.4, 2.68, 2.68, 3.13, 3.13, 3.13, 2.63, 3.07, 3.07, 3.07, 3.13, 4.38, 4.82, 3.82, 3.82, 3.6, 3.35, 3.43, 3.48, 4.07, 4.11, 4.11, 3.83, 3.49, 3.22, 3.08, 2.2, 1.76, 1.8, 1.11, 1.23, 1.73, 2.18, 2.82, 3.22, 3.45, 4.12, 5.03, 3.68, 3.68, 3.0, 3.22, 4.46, 4.46, 5.2, 5.6, 6.0, 5.58, 6.44, 6.7, 6.28, 6.52, 7.6, 8.63, 9.76, 9.32, 8.14, 9.97, 12.04, 11.59, 10.02, 8.0, 6.64, 4.13, 0.89, -1.9, 0.98, 6.0, 6.21, 7.15, 8.9, 11.05, 11.61, 11.79, 11.37, 10.52, 10.32, 9.9, 9.6, 9.45, 9.45, 9.2, 9.9, 10.0, 9.65, 8.3, 7.69, 7.32, 7.07, 7.07, 0.65, 1.16, 1.61, 1.61, 1.61, 1.61, 1.33, 1.33, 1.88, 1.9, 2.17, 2.68, 2.68, 2.68, 2.68, 3.07, 2.91, 3.07, 2.63, 2.68, 3.07, 3.32, 3.39, 3.2, 3.35, 3.72, 3.43, 3.78, 4.07, 4.07, 4.11, 3.49, 3.47, 3.47, 3.49, 2.84, 2.44, 2.44, 2.44, 2.44, 2.2, 2.84, 3.08, 3.22, 3.84, 3.76, 3.91, 2.49, 2.8, 3.22, 4.84, 5.6, 5.6, 5.6, 5.6, 6.13, 7.2, 7.76, 7.44, 7.6, 8.3, 9.97, 9.8, 8.9, 8.8, 11.96, 12.49, 11.59, 11.51, 12.27, 12.45, 11.99, 6.57, -1.4, 6.45, 6.65, 5.09, 5.09, 6.55, 9.39, 12.41, 12.87, 13.23, 12.98, 12.45, 12.04, 11.5, 11.5, 10.0, 9.2, 8.8, 8.8, 8.3, 7.69, 7.07, 6.7, 7.76, 7.76, 0.53, 0.53, 1.16, 1.6, 1.6, 1.6, 1.13, 1.13, 1.13, 1.33, 1.61, 2.17, 2.24, 2.24, 2.68, 2.6, 2.63, 2.63, 2.6, 2.68, 2.68, 3.07, 2.91, 3.32, 3.07, 3.35, 3.72, 3.43, 3.78, 3.48, 3.49, 3.49, 3.49, 3.47, 3.47, 3.49, 3.08, 2.84, 2.84, 3.12, 3.12, 2.84, 2.84, 3.49, 3.49, 3.49, 2.66, 3.0, 3.22, 4.11, 5.01, 5.36, 5.36, 5.36, 5.6, 6.0, 6.8, 7.44, 8.18, 7.35, 8.99, 9.97, 9.7, 8.01, 8.46, 11.6, 12.94, 11.15, 11.15, 11.15, 12.31, 12.6, 5.06, 4.02, 7.94, 5.36, 3.47, 3.22, 4.8, 8.36, 11.18, 12.86, 13.49, 13.72, 13.23, 13.11, 12.15, 11.6, 10.63, 9.05, 8.55, 7.67, 7.32, 7.07, 7.03, 7.03, 7.47, 7.47, 0.61, 0.61, 1.16, 1.13, 1.8, 1.27, 1.27, 1.11, 1.11, 0.57, 1.27, 1.88, 1.86, 2.12, 2.24, 2.24, 2.6, 2.6, 2.6, 2.68, 2.68, 2.68, 3.07, 2.91, 3.07, 3.07, 3.35, 3.35, 3.43, 3.48, 3.48, 3.49, 3.49, 3.49, 3.49, 3.49, 3.49, 3.49, 3.49, 2.84, 3.12, 3.12, 2.86, 2.86, 2.2, 2.44, 2.49, 3.0, 3.76, 4.74, 5.72, 5.06, 5.36, 5.36, 5.01, 6.23, 5.75, 6.8, 7.2, 7.6, 8.29, 8.77, 8.14, 6.51, 7.11, 10.28, 12.49, 12.91, 10.7, 9.83, 8.9, 10.12, 9.8, 8.18, 7.21, 6.07, 2.53, 2.84, 5.09, 7.42, 10.18, 11.18, 11.53, 11.52, 11.5, 11.2, 11.02, 10.43, 9.67, 9.04, 7.81, 6.7, 6.08, 6.44, 6.94, 7.47, 7.6, 7.6, 0.61, 0.61, 1.13, 1.13, 1.27, 1.11, 1.23, 1.11, 0.63, 0.55, 0.55, 1.11, 1.61, 1.58, 2.12, 1.79, 2.24, 2.17, 2.17, 2.17, 2.24, 2.24, 2.6, 2.63, 2.91, 2.68, 3.07, 3.14, 2.84, 3.16, 3.15, 3.2, 3.49, 3.49, 3.49, 3.49, 3.49, 3.49, 3.49, 3.49, 2.84, 2.86, 2.44, 1.94, 1.94, 1.19, 1.19, 1.16, 1.7, 2.4, 2.84, 3.68, 4.02, 4.74, 5.36, 5.36, 6.23, 5.6, 6.13, 7.21, 7.63, 6.7, 6.7, 5.75, 7.11, 9.83, 12.49, 12.41, 11.06, 8.05, 6.94, 7.35, 12.69, 13.67, 10.01, 4.82, -1.0, -1.2, 4.0, 7.42, 9.72, 10.28, 9.81, 9.4, 9.9, 9.42, 9.42, 8.82, 8.79, 8.94, 9.34, 7.07, 6.44, 6.8, 6.94, 7.2, 7.28, 7.28, 0.59, 0.59, 0.59, 1.27, 1.11, 1.23, 1.23, 1.08, 0.55, 0.55, 0.55, 0.61, 1.23, 1.16, 1.58, 1.7, 1.79, 2.24, 2.12, 2.12, 2.12, 2.24, 2.24, 2.68, 3.07, 2.91, 3.07, 3.07, 3.14, 3.16, 3.16, 3.15, 2.86, 3.12, 3.49, 3.49, 3.49, 3.49, 3.49, 3.49, 2.84, 2.84, 2.2, 1.76, 1.23, 1.08, 0.61, 1.16, 1.16, 1.7, 1.7, 2.4, 3.68, 4.74, 5.72, 6.08, 5.36, 5.6, 6.23, 7.21, 6.8, 6.52, 5.34, 6.51, 7.11, 9.39, 12.07, 12.42, 9.8, 8.49, 7.55, 9.04, 11.6, 16.01, 15.09, 8.43, -1.58, -2.21, 4.02, 8.49, 9.8, 9.36, 8.49, 8.82, 8.91, 9.36, 9.03, 8.43, 8.42, 8.93, 10.29, 8.32, 6.7, 6.64, 7.03, 7.44, 6.7, 6.7, 0.0, 0.0, 0.57, 1.11, 1.23, 1.08, 1.08, 1.19, 0.55, 0.55, 0.55, 0.54, 0.54, 0.55, 1.33, 1.9, 2.12, 2.24, 2.68, 2.68, 2.68, 2.68, 2.68, 2.68, 3.07, 3.07, 2.91, 3.07, 3.14, 3.14, 3.43, 3.43, 2.86, 3.15, 2.86, 3.12, 3.12, 2.84, 2.84, 3.49, 3.49, 3.08, 2.82, 1.73, 1.08, 1.08, 1.19, 1.07, 1.16, 1.16, 1.7, 1.88, 2.4, 3.49, 4.29, 4.74, 5.06, 5.6, 6.02, 6.28, 7.07, 6.08, 7.21, 7.42, 7.97, 8.49, 11.62, 10.16, 9.35, 8.9, 8.0, 7.63, 10.04, 12.84, 16.06, 13.8, 6.32, 1.2, 4.82, 8.45, 9.83, 9.24, 8.01, 7.15, 7.45, 8.4, 9.03, 9.05, 9.05, 9.43, 9.56, 10.19, 9.0, 7.76, 7.06, 7.06, 6.68, 6.68, 0.0, 0.0, 0.55, 1.08, 1.08, 1.19, 1.19, 1.19, 0.61, 0.61, 0.0, 0.0, 0.0, 0.59, 0.55, 1.84, 2.15, 3.07, 3.58, 3.58, 3.58, 3.58, 3.58, 3.13, 3.13, 3.09, 3.07, 3.39, 3.07, 3.07, 3.14, 2.84, 3.16, 2.86, 3.15, 2.86, 2.86, 3.12, 3.12, 2.84, 3.08, 3.49, 3.49, 3.49, 2.84, 2.4, 1.16, 0.54, 0.54, 1.07, 1.73, 2.44, 3.49, 4.11, 3.83, 4.29, 5.06, 5.36, 6.16, 6.4, 5.77, 6.44, 7.89, 8.14, 6.98, 8.49, 11.15, 9.24, 8.01, 8.01, 7.85, 7.21, 7.82, 8.73, 10.43, 12.13, 10.86, 7.51, 7.15, 7.85, 8.49, 7.5, 6.14, 5.81, 5.81, 6.51, 7.6, 9.05, 9.67, 9.67, 9.66, 8.85, 9.56, 8.27, 7.31, 6.64, 5.94, 5.94, 0.0, 0.0, 0.61, 0.61, 0.54, 1.07, 0.54, 0.54, 0.54, 0.54, 0.0, 0.0, 0.0, 0.0, 0.59, 1.23, 2.53, 3.39, 3.98, 4.02, 4.43, 4.43, 3.98, 3.98, 3.53, 3.82, 3.39, 3.39, 3.32, 3.07, 3.07, 3.14, 2.84, 3.16, 2.86, 3.15, 2.86, 2.86, 3.12, 3.12, 2.84, 3.22, 3.78, 4.29, 4.29, 3.49, 1.7, 1.23, 1.8, 1.23, 2.22, 3.49, 4.11, 4.12, 4.12, 3.49, 5.37, 6.13, 6.21, 6.8, 6.44, 6.82, 8.14, 8.3, 7.21, 9.7, 11.62, 9.24, 7.15, 6.71, 6.98, 7.76, 7.81, 6.18, 4.92, 5.48, 9.12, 10.83, 10.58, 8.8, 7.6, 6.6, 5.24, 4.92, 5.36, 5.59, 6.4, 8.43, 9.04, 9.0, 8.53, 8.12, 7.36, 8.16, 7.22, 6.58, 6.24, 6.24, 0.0, 0.0, 0.59, 0.59, 0.59, 0.59, 0.59, 0.59, 0.59, 0.59, 0.0, 0.0, 0.0, 0.0, 0.0, 0.59, 1.8, 3.32, 3.98, 4.43, 4.44, 4.34, 4.3, 4.3, 4.11, 3.7, 3.6, 3.6, 3.07, 2.68, 3.07, 3.07, 3.14, 2.84, 3.16, 2.86, 3.15, 2.86, 2.86, 2.86, 3.12, 3.12, 3.49, 3.49, 3.79, 4.58, 3.72, 2.86, 3.79, 4.11, 4.12, 3.76, 3.83, 4.12, 3.47, 3.47, 3.76, 4.71, 6.6, 6.4, 6.44, 7.42, 7.89, 8.0, 7.15, 9.26, 11.18, 11.84, 7.55, 5.29, 6.26, 8.14, 9.04, 7.64, 4.25, 2.59, 5.35, 9.06, 11.54, 10.66, 8.33, 5.33, 4.47, 4.43, 4.6, 5.82, 6.07, 6.06, 6.64, 6.51, 6.44, 6.45, 5.86, 7.51, 6.71, 6.51, 5.86, 5.86, 0.0, 0.0, 0.0, 0.53, 0.53, 0.59, 0.59, 0.59, 0.59, 0.59, 0.59, 0.0, 0.0, 0.0, 0.0, 0.0, 1.19, 2.53, 3.53, 3.98, 3.98, 4.3, 4.11, 4.11, 4.11, 4.11, 4.11, 3.35, 3.07, 2.91, 2.91, 3.07, 2.79, 3.14, 2.84, 2.86, 2.86, 2.22, 2.44, 2.44, 2.86, 2.86, 2.86, 3.15, 3.15, 3.22, 3.55, 3.76, 4.12, 3.84, 3.47, 3.47, 3.08, 3.49, 3.47, 3.47, 4.12, 4.71, 5.21, 6.8, 6.44, 7.42, 8.0, 7.35, 7.11, 7.89, 9.7, 9.77, 8.17, 5.81, 5.09, 6.65, 8.43, 10.51, 8.05, 4.92, 5.89, 7.68, 9.26, 10.22, 8.24, 5.75, 4.43, 4.8, 5.21, 5.35, 5.37, 5.21, 4.37, 4.5, 4.5, 4.4, 4.31, 4.6, 5.95, 5.78, 5.38, 5.38, 0.0, 0.0, 0.0, 0.58, 0.58, 0.58, 0.53, 0.53, 0.53, 0.53, 0.53, 0.0, 0.0, 0.0, 0.0, 0.0, 0.0, 1.08, 2.5, 3.07, 3.87, 4.3, 4.11, 4.11, 4.11, 3.88, 3.88, 3.72, 4.6, 3.07, 3.39, 3.07, 2.79, 2.79, 2.84, 2.58, 2.48, 2.22, 2.44, 2.44, 2.44, 2.86, 2.44, 2.44, 2.22, 1.73, 2.18, 3.04, 3.47, 3.47, 3.04, 2.82, 2.82, 2.84, 2.4, 3.49, 4.12, 5.05, 5.58, 5.75, 6.82, 7.42, 7.42, 6.64, 6.51, 7.11, 7.63, 7.15, 6.79, 6.26, 4.85, 4.47, 6.79, 9.76, 11.19, 8.99, 7.18, 6.95, 6.7, 7.22, 6.7, 5.34, 5.75, 5.29, 6.57, 6.32, 6.01, 5.1, 5.21, 3.8, 3.8, 3.15, 3.15, 3.8, 5.04, 4.6, 4.71, 4.71, 0.0, 0.0, 0.0, 0.0, 0.58, 0.58, 0.58, 0.58, 0.58, 0.58, 0.58, 0.0, 0.0, 0.0, 0.0, 0.0, 0.0, 0.0, 0.58, 2.23, 3.6, 4.3, 4.11, 4.11, 3.88, 4.27, 3.88, 3.43, 3.72, 4.6, 3.6, 3.6, 3.07, 2.79, 2.23, 2.51, 2.48, 2.48, 2.22, 2.44, 2.44, 2.44, 2.44, 1.76, 1.76, 1.73, 1.73, 2.18, 2.36, 2.36, 2.36, 2.36, 2.4, 2.18, 2.18, 2.4, 2.84, 4.71, 5.29, 5.49, 5.86, 7.03, 8.22, 6.94, 6.7, 7.15, 7.55, 5.31, 5.36, 5.7, 4.92, 4.02, 4.38, 6.73, 10.83, 12.02, 9.31, 6.7, 5.28, 5.21, 5.09, 6.0, 6.7, 7.68, 7.25, 6.95, 6.65, 5.72, 5.21, 4.5, 3.4, 3.11, 2.47, 3.11, 3.33, 4.26, 3.79, 3.79, 0.0, 0.0, 0.0, 0.0, 0.58, 0.58, 0.58, 0.58, 0.58, 0.58, 0.58, 0.58, 0.0, 0.0, 0.0, 0.0, 0.0, 0.0, 0.56, 1.7, 3.16, 4.11, 4.11, 4.11, 3.88, 4.27, 4.0, 3.43, 3.43, 3.72, 3.35, 3.35, 3.45, 2.79, 2.53, 2.51, 2.23, 2.48, 2.22, 2.44, 2.44, 2.44, 1.94, 1.76, 1.76, 1.94, 1.73, 2.2, 2.4, 2.4, 2.4, 2.4, 2.4, 2.36, 2.36, 2.82, 2.84, 3.22, 4.71, 5.29, 8.15, 8.22, 7.81, 7.81, 7.21, 7.11, 6.71, 5.81, 5.81, 6.71, 6.21, 6.14, 5.64, 6.18, 8.3, 11.37, 11.48, 8.66, 5.86, 4.36, 5.09, 7.6, 8.67, 8.94, 7.94, 7.25, 6.32, 5.38, 4.83, 4.16, 3.91, 3.48, 2.84, 2.41, 2.53, 3.33, 3.9, 3.9, 0.0, 0.0, 0.0, 0.0, 0.0, 0.58, 0.58, 0.58, 0.58, 0.58, 0.58, 0.53, 0.53, 0.0, 0.57, 0.0, 0.0, 0.0, 0.0, 0.57, 2.44, 3.88, 4.27, 4.27, 3.88, 4.27, 4.0, 3.78, 3.43, 3.72, 3.35, 3.35, 3.35, 3.07, 2.53, 2.23, 2.51, 2.48, 2.22, 2.44, 2.2, 1.73, 1.73, 1.76, 1.76, 1.76, 1.76, 1.76, 1.94, 1.94, 1.73, 2.2, 2.4, 2.36, 3.04, 3.04, 3.04, 3.49, 3.83, 5.86, 6.56, 8.8, 8.22, 8.22, 7.81, 7.21, 6.2, 5.31, 5.81, 7.11, 7.12, 7.74, 6.52, 5.06, 6.83, 10.43, 12.96, 12.72, 9.17, 7.15, 7.03, 8.24, 8.93, 8.94, 7.96, 6.57, 5.59, 5.43, 4.43, 4.54, 4.57, 4.34, 3.58, 3.13, 2.6, 2.84, 3.72, 3.72, 0.0, 0.0, 0.0, 0.0, 0.0, 0.57, 0.53, 0.58, 0.58, 0.57, 0.57, 0.57, 0.57, 0.57, 0.57, 0.57, 0.57, 0.56, 0.0, 0.56, 1.88, 3.78, 4.27, 4.27, 4.27, 3.88, 3.78, 3.48, 3.43, 3.43, 3.35, 3.35, 3.35, 2.79, 2.53, 2.53, 2.23, 1.8, 2.48, 2.22, 1.73, 1.73, 1.73, 1.76, 1.76, 1.8, 1.8, 1.58, 1.76, 1.76, 1.76, 2.2, 2.4, 2.82, 3.04, 3.45, 3.45, 4.12, 3.84, 5.86, 6.95, 7.71, 8.22, 7.35, 7.76, 7.2, 5.75, 4.66, 5.75, 7.55, 8.41, 7.71, 6.28, 4.29, 6.79, 10.04, 12.87, 14.42, 13.04, 10.82, 9.52, 9.27, 8.93, 8.32, 7.67, 6.94, 5.75, 4.98, 4.57, 4.82, 4.92, 5.36, 4.82, 3.9, 3.13, 2.54, 3.16, 3.16, 0.0, 0.0, 0.0, 0.0, 0.0, 0.57, 0.57, 0.57, 0.57, 0.57, 0.57, 0.57, 0.57, 0.57, 0.57, 0.61, 0.56, 0.56, 0.0, 0.0, 1.14, 2.86, 4.0, 4.0, 4.27, 3.72, 3.43, 3.48, 3.48, 3.43, 3.09, 3.35, 3.35, 2.79, 2.53, 2.21, 1.61, 1.84, 1.8, 1.76, 1.94, 1.73, 2.44, 2.4, 2.0, 1.8, 1.27, 1.13, 1.8, 1.8, 2.44, 2.84, 2.82, 3.47, 3.45, 3.45, 4.1, 4.47, 5.35, 5.86, 6.95, 7.71, 8.22, 7.35, 7.42, 7.6, 6.16, 5.2, 6.21, 8.05, 8.45, 7.35, 6.52, 6.28, 7.2, 7.82, 9.4, 11.14, 12.64, 12.74, 11.42, 10.15, 9.14, 8.14, 6.79, 5.59, 4.85, 4.38, 4.47, 4.92, 5.29, 5.51, 5.51, 4.57, 3.82, 2.97, 2.68, 2.98, 0.0, 0.0, 0.0, 0.0, 0.0, 0.0, 0.57, 0.57, 0.57, 0.57, 0.57, 0.57, 0.57, 0.57, 0.57, 0.61, 0.56, 0.56, 0.0, 0.0, 1.12, 2.4, 3.73, 4.37, 4.0, 3.43, 3.43, 3.16, 2.86, 3.16, 3.16, 2.84, 3.14, 3.14, 2.79, 2.21, 1.88, 1.16, 1.13, 1.27, 1.76, 1.76, 2.22, 2.4, 2.44, 1.76, 1.13, 1.33, 1.8, 2.22, 3.12, 3.08, 3.47, 3.72, 3.45, 4.1, 4.47, 4.75, 5.37, 5.93, 6.95, 7.48, 8.79, 6.8, 7.35, 7.81, 7.4, 6.28, 6.98, 8.46, 8.46, 8.17, 7.07, 7.06, 7.44, 6.18, 6.11, 7.48, 9.73, 11.74, 11.8, 11.16, 9.45, 7.45, 5.36, 4.47, 4.47, 4.47, 4.82, 5.09, 5.51, 5.6, 5.21, 4.6, 3.58, 2.98, 2.97, 2.68, -0.56, -0.56, 0.0, 0.0, 0.0, 0.0, 0.57, 0.57, 0.57, 0.57, 0.57, 0.57, 0.57, 0.57, 0.57, 0.61, 0.56, 0.56, 0.59, 0.0, 0.56, 2.18, 3.48, 4.07, 3.73, 3.78, 3.43, 2.86, 2.86, 2.86, 3.16, 3.16, 2.84, 2.84, 2.84, 2.53, 2.15, 1.61, 1.33, 1.13, 1.8, 1.76, 1.8, 1.76, 2.6, 2.22, 1.8, 1.8, 2.48, 2.86, 3.08, 3.22, 3.47, 3.72, 3.85, 4.1, 4.75, 5.38, 5.65, 6.15, 6.95, 7.48, 7.43, 7.81, 7.81, 8.63, 7.21, 6.7, 7.89, 8.8, 8.33, 7.21, 7.2, 8.54, 9.1, 7.41, 6.79, 7.76, 9.96, 10.81, 11.44, 10.45, 8.8, 6.26, 4.38, 4.02, 4.02, 4.82, 4.98, 5.51, 5.2, 5.21, 4.89, 3.79, 3.93, 3.16, 2.84, 2.97, -0.59, -0.59, 0.0, 0.0, 0.0, 0.0, 0.0, 0.61, 0.57, 0.61, 0.61, 0.57, 0.57, 0.57, 0.57, 0.57, 0.56, 0.56, 0.0, 0.0, 0.0, 1.67, 2.86, 3.48, 3.48, 3.48, 3.48, 2.86, 2.86, 2.86, 2.86, 2.86, 3.16, 3.16, 2.84, 2.84, 2.23, 1.84, 1.84, 1.6, 1.27, 1.27, 1.27, 1.27, 1.11, 2.6, 2.22, 2.44, 3.12, 2.84, 3.08, 3.22, 3.47, 3.47, 4.12, 4.47, 4.75, 5.69, 5.98, 6.23, 6.7, 7.71, 9.75, 8.67, 8.37, 8.79, 7.21, 7.21, 7.89, 9.24, 8.14, 7.42, 7.21, 8.22, 8.37, 9.48, 11.2, 11.6, 11.28, 11.6, 10.81, 10.55, 8.4, 4.85, 3.6, 3.95, 4.38, 4.57, 4.98, 4.6, 5.2, 5.21, 4.89, 4.11, 3.79, 4.29, 3.93, 3.93, -0.55, -0.55, -0.59, 0.0, 0.0, 0.0, 0.0, 0.56, 0.56, 0.56, 0.56, 0.56, 0.61, 0.61, 0.57, 0.57, 0.56, 0.56, 0.56, 0.0, 0.0, 1.14, 2.61, 3.48, 3.48, 3.48, 3.48, 3.15, 3.15, 2.86, 2.86, 2.86, 2.86, 3.16, 3.16, 2.84, 2.51, 2.51, 1.8, 1.8, 1.27, 1.27, 1.13, 0.59, 0.66, 1.23, 1.73, 2.4, 2.84, 3.08, 3.08, 3.49, 3.47, 4.12, 4.12, 4.47, 5.38, 5.69, 5.69, 6.23, 6.7, 8.0, 8.42, 8.79, 8.79, 8.79, 7.81, 7.31, 8.33, 9.06, 7.71, 7.42, 7.74, 7.63, 8.63, 10.62, 12.39, 13.83, 13.25, 12.52, 11.8, 10.79, 7.98, 4.15, 3.22, 4.0, 4.15, 4.4, 3.93, 4.6, 4.98, 5.2, 4.84, 4.98, 4.6, 4.57, 4.57, 4.57, -0.55, -0.55, -0.55, 0.0, 0.0, 0.0, 0.0, 0.0, 0.59, 0.56, 0.56, 0.56, 0.56, 0.56, 0.61, 0.0, 0.0, 0.0, 0.0, 0.0, 0.0, 0.57, 2.2, 2.86, 3.2, 3.2, 2.86, 2.86, 2.86, 2.86, 2.22, 2.86, 2.86, 2.86, 2.86, 2.23, 2.23, 2.23, 1.8, 1.8, 1.27, 1.13, 1.13, 0.66, 0.57, 1.08, 1.73, 2.4, 2.4, 3.08, 3.49, 3.49, 4.12, 4.12, 4.45, 4.47, 5.38, 5.69, 5.69, 6.23, 6.7, 8.22, 8.91, 10.18, 9.21, 9.21, 8.22, 8.17, 8.8, 8.63, 7.63, 7.42, 7.85, 7.71, 8.14, 9.75, 11.09, 12.47, 13.25, 13.87, 12.87, 11.18, 7.98, 4.15, 2.68, 2.84, 4.0, 4.0, 4.0, 3.93, 4.22, 5.2, 5.51, 5.51, 5.29, 5.36, 5.36, 5.36, -1.16, -1.16, -0.58, 0.0, 0.0, 0.0, 0.0, 0.0, 0.55, 0.59, 0.59, 0.59, 0.56, 0.0, 0.0, 0.0, 0.0, 0.0, 0.0, 0.0, 0.0, 0.57, 1.7, 2.86, 2.86, 2.86, 2.86, 2.86, 2.86, 2.44, 2.44, 2.22, 2.48, 2.86, 2.48, 2.23, 2.23, 1.8, 1.8, 1.27, 1.27, 1.27, 1.27, 1.11, 1.08, 1.73, 1.88, 2.4, 2.84, 3.22, 3.49, 3.83, 4.12, 4.12, 4.45, 5.08, 5.38, 5.69, 6.01, 6.23, 7.07, 7.81, 8.91, 8.96, 10.7, 9.21, 8.17, 8.33, 8.8, 9.06, 9.11, 8.33, 8.14, 8.14, 8.63, 9.54, 9.9, 10.23, 11.83, 12.86, 13.23, 11.8, 8.8, 4.85, 1.8, 1.98, 2.98, 3.9, 4.38, 4.38, 5.36, 5.81, 6.26, 5.81, 5.81, 5.81, 5.81, 5.81, -1.16, -1.16, -0.58, -0.58, 0.0, 0.0, 0.0, 0.0, 0.0, 0.55, 0.55, 0.0, 0.0, 0.0, 0.0, 0.0, 0.0, 0.0, 0.0, 0.0, 0.0, 0.0, 1.16, 2.44, 2.86, 2.86, 2.86, 2.86, 2.86, 2.44, 2.44, 2.44, 2.22, 2.48, 2.48, 2.23, 1.8, 1.8, 1.8, 1.27, 1.27, 1.11, 1.76, 1.76, 1.73, 2.4, 2.4, 2.84, 3.12, 3.49, 3.49, 3.49, 4.12, 3.84, 4.45, 5.08, 5.08, 5.69, 6.01, 6.57, 7.07, 7.81, 8.48, 9.43, 9.39, 9.63, 8.17, 7.89, 9.24, 9.11, 9.06, 9.06, 8.14, 8.14, 8.63, 9.33, 9.49, 9.6, 10.04, 11.04, 11.9, 12.87, 10.66, 5.75, 0.99, 0.99, 3.2, 4.92, 5.81, 6.71, 7.01, 6.94, 6.94, 6.65, 6.45, 6.02, 6.02, 6.02, -1.07, -1.07, -0.58, -0.58, -0.58, 0.0, 0.0, 0.0, 0.0, 0.0, 0.0, 0.0, 0.0, 0.0, 0.0, 0.0, 0.0, 0.0, 0.0, 0.0, 0.0, 0.0, 1.14, 1.73, 2.86, 2.86, 2.86, 2.2, 2.4, 2.2, 2.2, 2.2, 2.44, 2.22, 2.22, 2.48, 1.8, 1.8, 1.58, 1.76, 1.76, 1.76, 2.44, 2.2, 2.4, 2.84, 2.84, 3.22, 3.49, 3.49, 3.49, 3.78, 4.12, 4.12, 4.75, 5.37, 5.08, 5.69, 6.01, 6.57, 7.07, 7.81, 8.48, 9.39, 9.86, 9.63, 7.74, 8.41, 9.77, 9.97, 9.54, 9.06, 9.06, 8.63, 9.11, 9.97, 9.24, 8.95, 9.05, 10.04, 10.66, 11.9, 12.26, 7.6, -0.0, -0.0, 3.6, 5.81, 7.1, 7.12, 7.76, 8.3, 8.3, 7.63, 6.7, 6.02, 6.02, 6.02, -1.14, -1.14, -1.16, -0.58, -0.58, 0.0, 0.0, 0.0, 0.0, 0.0, 0.0, 0.0, 0.0, 0.0, 0.0, -0.56, -0.56, -0.56, 0.0, 0.0, 0.0, 0.0, 0.57, 1.7, 2.2, 2.86, 2.84, 2.4, 2.4, 2.4, 2.4, 2.2, 1.73, 1.73, 2.44, 1.76, 1.76, 1.76, 1.76, 1.76, 2.44, 2.2, 2.4, 2.4, 2.84, 2.84, 2.84, 3.49, 3.49, 3.49, 3.49, 3.83, 4.12, 4.42, 4.75, 5.06, 5.08, 5.69, 5.69, 6.57, 7.07, 7.71, 8.48, 8.96, 9.43, 10.18, 8.67, 8.43, 9.32, 9.54, 9.97, 9.54, 9.54, 9.54, 9.97, 9.97, 8.82, 8.4, 9.42, 10.0, 10.4, 11.26, 12.87, 10.19, 2.98, -0.0, 4.38, 6.26, 7.71, 7.47, 8.3, 8.72, 9.24, 8.3, 7.21, 6.45, 6.45, 6.45, -1.14, -1.14, -1.14, -1.16, -0.58, -0.58, 0.0, 0.0, 0.0, 0.0, 0.0, -0.58, -0.55, -0.59, -0.56, -0.56, -0.56, 0.0, 0.0, 0.0, 0.0, 0.0, 0.56, 1.14, 1.88, 2.2, 2.4, 2.4, 2.4, 2.4, 2.4, 1.88, 1.88, 1.73, 1.73, 1.73, 1.73, 1.73, 1.73, 2.2, 2.2, 2.4, 2.4, 2.84, 2.84, 2.84, 3.49, 3.49, 3.78, 4.11, 4.11, 3.83, 4.12, 4.74, 4.75, 5.06, 5.08, 5.69, 5.69, 6.23, 6.7, 7.71, 8.0, 8.91, 9.54, 9.75, 9.06, 8.36, 8.9, 9.24, 9.68, 9.24, 9.7, 10.14, 10.02, 9.33, 8.72, 8.55, 9.6, 10.0, 9.9, 10.32, 12.27, 12.84, 7.59, 4.22, 6.66, 7.71, 8.91, 9.6, 9.08, 9.24, 9.49, 8.56, 7.42, 6.51, 6.51, 6.51, -1.69, -1.69, -1.71, -1.16, -1.16, -1.16, -0.55, -0.58, -0.58, -0.58, -0.58, -0.58, -0.55, -0.59, -0.56, -0.56, -0.56, 0.0, 0.0, 0.0, 0.0, 0.0, 0.0, 0.57, 1.7, 2.2, 2.4, 2.4, 2.4, 1.7, 1.7, 1.7, 1.7, 1.7, 1.88, 1.73, 1.73, 1.73, 2.2, 2.4, 2.4, 2.4, 2.84, 2.84, 3.08, 3.08, 3.49, 3.49, 4.11, 4.11, 3.83, 4.12, 4.12, 4.74, 4.45, 5.06, 5.37, 5.08, 5.98, 6.23, 6.7, 7.31, 8.0, 8.48, 9.11, 10.45, 9.54, 9.7, 9.36, 9.35, 9.24, 8.77, 8.45, 9.26, 9.54, 8.82, 8.4, 8.95, 9.49, 9.9, 9.66, 9.24, 10.0, 10.84, 10.34, 7.89, 7.21, 7.92, 9.89, 11.3, 11.21, 10.32, 8.82, 8.45, 7.55, 6.65, 6.65, 6.65, -1.69, -2.37, -2.23, -1.71, -1.71, -1.16, -1.16, -1.16, -1.16, -1.16, -1.16, -0.58, -0.55, -0.59, -0.59, 0.0, 0.0, 0.0, 0.0, 0.0, 0.0, 0.0, 0.0, 0.56, 1.14, 1.7, 2.4, 2.4, 1.7, 1.7, 1.7, 1.7, 1.7, 1.7, 1.7, 1.7, 1.7, 1.88, 2.4, 2.4, 2.4, 2.4, 2.84, 3.08, 3.08, 3.49, 3.49, 3.49, 3.83, 3.49, 3.49, 4.12, 3.84, 4.74, 4.45, 4.75, 5.37, 5.37, 5.65, 6.23, 6.51, 7.2, 7.51, 8.0, 8.91, 9.11, 10.16, 10.16, 10.25, 9.36, 8.8, 8.8, 8.45, 8.49, 8.77, 7.89, 8.0, 8.95, 9.36, 8.95, 8.3, 7.76, 7.82, 7.78, 9.21, 8.24, 7.28, 8.46, 10.18, 11.52, 11.99, 11.03, 9.68, 8.01, 7.6, 6.71, 6.71, 6.71, -2.37, -2.37, -2.23, -2.23, -1.71, -1.71, -1.71, -1.71, -1.16, -1.16, -0.58, -0.58, 0.0, 0.0, 0.0, 0.0, 0.0, 0.0, 0.0, 0.58, 0.54, 0.54, 0.54, 0.55, 1.12, 1.84, 1.7, 1.7, 1.7, 1.7, 1.7, 1.7, 1.7, 1.7, 1.7, 1.7, 1.7, 1.7, 2.4, 2.4, 2.4, 2.4, 2.84, 3.08, 3.08, 3.49, 3.49, 3.49, 3.49, 3.49, 3.76, 4.12, 3.84, 4.45, 4.45, 4.75, 5.06, 5.37, 5.37, 5.65, 6.51, 7.2, 7.51, 8.0, 8.48, 9.11, 10.6, 10.7, 10.25, 9.26, 8.8, 8.8, 8.46, 8.45, 7.89, 7.35, 8.0, 9.36, 8.95, 8.3, 7.76, 7.42, 6.79, 7.51, 7.59, 7.6, 7.71, 8.82, 9.72, 10.8, 11.21, 10.8, 9.35, 8.05, 7.15, 6.26, 6.26, 6.26, -2.37, -2.37, -2.23, -2.23, -2.23, -1.71, -1.71, -1.71, -1.16, -1.16, -0.58, 0.0, 0.0, 0.0, 0.0, 0.0, 0.57, 0.57, 0.54, 0.57, 1.14, 1.14, 1.14, 0.58, 1.18, 1.23, 1.7, 1.7, 1.84, 1.67, 1.14, 1.14, 1.14, 1.16, 1.16, 1.7, 1.7, 1.7, 2.18, 2.4, 2.4, 2.4, 2.84, 3.08, 3.08, 3.49, 3.49, 3.49, 3.49, 3.49, 3.47, 3.84, 4.12, 4.12, 4.45, 4.45, 4.75, 5.06, 5.37, 5.65, 6.15, 6.8, 7.01, 7.51, 8.0, 9.07, 9.68, 10.27, 10.28, 9.36, 8.9, 8.9, 8.33, 8.33, 7.71, 8.14, 8.82, 9.75, 9.24, 8.3, 8.3, 7.67, 7.48, 7.64, 6.68, 6.94, 8.36, 9.72, 10.05, 10.32, 10.75, 9.58, 8.45, 7.15, 6.71, 6.2, 6.2, 6.2, -2.21, -2.21, -2.21, -2.21, -1.69, -1.69, -1.69, -1.69, -1.14, -0.54, -0.54, 0.0, 0.0, 0.0, 0.0, 0.57, 0.57, 0.57, 0.57, 1.14, 1.14, 1.14, 1.2, 1.14, 1.16, 1.2, 1.67, 1.84, 1.67, 1.67, 1.14, 1.14, 1.14, 1.14, 1.16, 1.16, 1.7, 1.7, 1.7, 2.18, 2.18, 2.4, 2.82, 2.82, 2.82, 3.22, 3.22, 3.22, 3.47, 3.47, 3.47, 3.47, 3.84, 4.12, 4.45, 4.45, 4.75, 4.75, 5.37, 5.65, 6.15, 6.41, 7.01, 7.01, 7.51, 8.64, 9.67, 10.27, 10.73, 9.39, 9.35, 8.46, 7.89, 7.71, 7.63, 8.33, 9.06, 9.33, 9.08, 8.95, 8.95, 9.03, 10.63, 10.58, 9.05, 8.14, 9.24, 10.45, 10.52, 10.75, 10.02, 8.36, 7.6, 6.71, 6.2, 5.29, 5.29, 5.29, -1.69, -1.69, -1.69, -1.69, -1.78, -1.78, -1.78, -1.14, -1.14, -0.57, -0.57, 0.0, 0.0, 0.0, 0.57, 0.57, 0.56, 0.56, 0.57, 0.57, 0.57, 0.57, 0.57, 1.14, 1.16, 1.18, 1.12, 1.67, 1.67, 1.14, 1.12, 1.12, 1.12, 1.14, 1.14, 1.14, 1.16, 1.7, 1.84, 2.36, 2.36, 2.36, 2.82, 2.82, 2.82, 3.04, 3.47, 3.47, 3.47, 3.47, 3.47, 3.47, 3.84, 4.12, 4.12, 4.45, 4.75, 4.75, 5.37, 5.93, 5.93, 6.41, 6.8, 7.01, 7.51, 8.17, 9.23, 10.27, 10.28, 9.83, 9.36, 8.9, 8.33, 7.71, 8.14, 8.14, 7.71, 8.63, 8.95, 9.49, 9.49, 10.63, 11.66, 12.62, 11.66, 10.18, 9.58, 10.52, 10.8, 10.32, 8.82, 7.15, 6.26, 6.2, 5.51, 4.98, 4.98, 4.98, -1.78, -1.78, -1.78, -1.67, -1.67, -1.12, -1.12, -1.12, -0.56, -0.57, -0.57, 0.0, 0.0, 0.0, 0.57, 0.56, 0.56, 0.56, 0.57, 0.57, 0.57, 0.57, 0.57, 0.57, 0.57, 1.16, 1.1, 1.12, 1.14, 1.14, 1.12, 1.12, 1.2, 0.57, 1.12, 1.14, 1.14, 1.67, 1.67, 2.36, 2.36, 2.36, 2.82, 3.04, 3.04, 3.04, 3.04, 3.47, 3.04, 3.47, 3.47, 3.47, 3.84, 4.12, 4.12, 4.45, 4.75, 4.75, 5.37, 5.65, 5.93, 6.03, 6.28, 6.51, 7.01, 8.17, 8.79, 9.82, 10.28, 10.28, 10.25, 9.8, 8.8, 8.56, 8.56, 8.63, 8.56, 8.14, 8.82, 8.95, 10.0, 10.63, 10.9, 12.26, 12.26, 11.2, 10.8, 11.23, 11.03, 10.6, 8.46, 6.21, 5.75, 5.51, 5.51, 4.98, 4.98, 4.98, -1.67, -1.67, -1.67, -1.12, -1.18, -1.18, -1.12, -1.12, -0.56, -0.56, 0.0, 0.0, 0.0, 0.0, 0.57, 0.56, 0.56, 0.56, 0.56, 0.57, 0.57, 0.57, 0.57, 0.57, 0.57, 0.54, 0.58, 0.56, 0.57, 0.58, 0.57, 0.57, 0.56, 0.56, 0.61, 1.12, 1.12, 1.8, 1.8, 2.32, 2.32, 2.32, 2.8, 2.8, 2.8, 2.8, 2.8, 2.8, 2.8, 3.47, 3.47, 3.47, 4.12, 4.12, 4.12, 4.45, 4.75, 4.47, 5.06, 5.06, 5.59, 5.86, 6.28, 6.28, 7.01, 7.51, 8.77, 9.37, 9.83, 10.73, 10.73, 9.8, 9.24, 8.63, 8.63, 9.33, 9.33, 8.82, 8.82, 9.03, 10.0, 10.23, 11.04, 11.28, 12.27, 11.83, 11.79, 11.52, 11.72, 11.03, 8.46, 5.59, 4.8, 4.98, 4.98, 4.29, 4.29, 4.29, -1.12, -1.12, -1.18, -1.18, -1.18, -1.18, -1.18, -0.56, -0.56, -0.56, 0.0, 0.0, 0.0, 0.0, 0.0, 0.56, 0.56, 0.56, 0.56, 0.57, 0.57, 0.57, 0.57, 0.57, 0.57, 0.57, 0.54, 0.55, 0.61, 0.57, 0.0, 0.0, 0.0, 0.56, 0.56, 1.1, 1.2, 1.76, 2.14, 2.32, 2.32, 2.32, 2.8, 2.8, 2.8, 3.0, 3.0, 2.8, 2.8, 3.22, 3.22, 3.72, 4.12, 4.12, 4.12, 4.75, 4.47, 4.47, 5.06, 5.06, 5.59, 5.86, 5.86, 6.28, 7.01, 7.51, 8.21, 8.87, 9.39, 9.83, 9.83, 10.25, 9.26, 8.56, 8.63, 9.33, 9.75, 9.24, 8.95, 9.03, 10.0, 10.55, 11.26, 11.66, 11.64, 11.64, 11.79, 11.52, 11.72, 11.3, 8.82, 5.2, 3.79, 4.54, 4.54, 4.29, 4.29, 4.29, -1.18, -1.18, -1.18, -1.11, -1.11, -1.11, -0.59, -0.56, -0.56, -0.56, 0.0, 0.0, 0.0, 0.0, 0.0, 0.0, 0.56, 0.56, 0.56, 0.57, 0.57, 0.57, 0.57, 0.57, 0.57, 0.57, 0.57, 0.54, 0.55, 0.56, 0.0, 0.0, 0.0, 0.0, 0.56, 1.1, 1.63, 1.76, 2.29, 2.29, 2.29, 2.29, 2.77, 2.77, 3.0, 3.0, 3.0, 3.0, 3.0, 3.45, 3.45, 3.45, 3.85, 3.85, 4.1, 4.1, 4.47, 4.47, 4.75, 5.06, 5.35, 5.59, 5.86, 6.28, 6.8, 7.51, 8.17, 8.86, 9.39, 9.83, 9.83, 10.7, 10.14, 9.11, 9.06, 9.54, 9.75, 8.95, 9.66, 10.18, 10.43, 10.96, 11.2, 11.66, 12.27, 12.23, 12.04, 11.87, 11.72, 10.94, 9.58, 5.09, 2.4, 3.63, 3.79, 3.48, 3.48, 3.48, -1.11, -1.11, -1.11, -1.11, -1.11, -0.56, -0.59, -0.56, -0.56, 0.0, 0.0, 0.0, 0.0, 0.0, 0.0, 0.0, 0.0, 0.0, 0.0, 0.0, 0.0, 0.57, 0.57, 0.57, 0.57, 0.57, 0.57, 0.57, 0.57, 0.58, 0.0, 0.0, 0.0, 0.0, 0.56, 1.1, 1.18, 1.73, 1.73, 2.29, 2.29, 2.29, 2.29, 2.77, 2.77, 2.77, 2.96, 2.77, 2.77, 3.0, 3.45, 3.45, 4.1, 4.1, 4.1, 4.1, 4.1, 4.47, 4.75, 4.75, 5.35, 5.59, 5.86, 6.03, 6.8, 7.51, 8.17, 8.86, 9.39, 9.39, 9.83, 9.37, 9.32, 10.47, 9.7, 9.97, 9.75, 9.75, 9.75, 10.45, 10.89, 10.85, 11.09, 11.64, 12.27, 12.79, 12.7, 12.04, 12.04, 11.5, 10.32, 6.71, 2.53, 2.4, 3.35, 3.79, 3.79, 3.79, -1.11, -1.11, -1.11, -1.11, -1.11, -0.56, -0.59, -0.56, -0.56, 0.0, 0.0, 0.0, 0.0, 0.0, 0.0, 0.0, 0.0, 0.0, 0.0, 0.0, 0.0, 0.57, 0.57, 0.57, 0.57, 0.57, 0.57, 0.57, 0.57, 0.58, 0.0, 0.0, 0.0, 0.0, 0.56, 1.1, 1.18, 1.73, 1.73, 2.29, 2.29, 2.29, 2.29, 2.77, 2.77, 2.77, 2.96, 2.77, 2.77, 3.0, 3.45, 3.45, 4.1, 4.1, 4.1, 4.1, 4.1, 4.47, 4.75, 4.75, 5.35, 5.59, 5.86, 6.03, 6.8, 7.51, 8.17, 8.86, 9.39, 9.39, 9.83, 9.37, 9.32, 10.47, 9.7, 9.97, 9.33, 9.75, 9.75, 10.45, 10.89, 10.68, 10.85, 11.2, 12.23, 12.79, 13.11, 12.7, 12.04, 11.5, 10.55, 7.85, 4.4, 2.76, 3.63, 4.11, 4.11, 4.11]}]